Sigfox identifier Datetime Temperature Humidity SNR
003B77A1 2019-04-12 12:28:04 21.1 17 20.7
003B77A1 2019-04-12 11:56:38 21.1 17 20.7
003B77A1 2019-04-12 11:25:10 21.2 18 20.9
003B77A1 2019-04-12 10:53:44 21.1 18 21.1
003B77A1 2019-04-12 10:22:16 21.1 17 21.2
003B77A1 2019-04-12 09:50:51 21 17 21.4
003B77A1 2019-04-12 09:19:26 20.9 17 21.2
003B77A1 2019-04-12 08:48:00 20.9 17 21.5
003B77A1 2019-04-12 08:16:34 20.9 18 21.7
003B77A1 2019-04-12 07:45:08 20.9 18 21.7
003B77A1 2019-04-12 07:13:42 20.9 18 21.8
003B77A1 2019-04-12 06:42:16 20.9 18 21.9
003B77A1 2019-04-12 06:10:49 21 18 22
003B77A1 2019-04-12 05:39:23 21 18 21.9
003B77A1 2019-04-12 05:07:57 21 18 22
003B77A1 2019-04-12 04:36:31 21 18 21.8
003B77A1 2019-04-12 04:05:06 21 18 21.8
003B77A1 2019-04-12 03:33:42 21.1 18 22.1
003B77A1 2019-04-12 03:02:18 21.1 18 22
003B77A1 2019-04-12 02:30:53 21.1 18 20.8
003B77A1 2019-04-12 01:59:27 21.1 18 20.8
003B77A1 2019-04-12 01:28:04 21.2 18 20.8
003B77A1 2019-04-12 00:56:39 21.3 18 21.1
003B77A1 2019-04-12 00:25:15 21.3 18 20.8
003B77A1 2019-04-11 23:53:49 21.4 18 20.6
003B77A1 2019-04-11 23:22:24 21.5 18 20.4
003B77A1 2019-04-11 22:50:58 21.5 18 20.4
003B77A1 2019-04-11 22:19:32 21.5 18 20.1
003B77A1 2019-04-11 21:48:07 21.5 18 20
003B77A1 2019-04-11 21:16:41 21.5 18 20
003B77A1 2019-04-11 20:45:16 21.4 17 19.7
003B77A1 2019-04-11 20:13:50 21.4 17 19.9
003B77A1 2019-04-11 19:42:26 21.3 17 19.7
003B77A1 2019-04-11 19:11:02 21.3 17 19.7
003B77A1 2019-04-11 18:39:39 21.3 17 19.7
003B77A1 2019-04-11 18:08:15 21.3 16 19.5
003B77A1 2019-04-11 17:36:52 21.2 17 19.6
003B77A1 2019-04-11 17:05:29 21.3 17 19.8
003B77A1 2019-04-11 16:34:06 21.3 18 20.1
003B77A1 2019-04-11 16:02:09 21.3 18 20.2
003B77A1 2019-04-11 15:30:45 21.1 18 20.6
003B77A1 2019-04-11 14:59:21 21.1 18 20.5
003B77A1 2019-04-11 14:27:57 21 18 20.5
003B77A1 2019-04-11 13:56:33 21 18 20.8
003B77A1 2019-04-11 13:25:08 20.9 17 21
003B77A1 2019-04-11 12:53:44 20.9 17 21
003B77A1 2019-04-11 12:22:20 20.9 17 20.8
003B77A1 2019-04-11 11:50:55 20.9 18 21
003B77A1 2019-04-11 11:19:30 20.9 18 22.2
003B77A1 2019-04-11 10:48:07 20.9 18 22.4
003B77A1 2019-04-11 10:16:39 20.8 18 22.5
003B77A1 2019-04-11 09:45:14 20.8 17 23.3
003B77A1 2019-04-11 09:13:48 20.8 17 23.3
003B77A1 2019-04-11 08:42:22 20.8 18 23.2
003B77A1 2019-04-11 08:10:56 20.7 18 23.3
003B77A1 2019-04-11 07:39:32 20.8 18 23.4
003B77A1 2019-04-11 07:08:06 20.8 18 23.3
003B77A1 2019-04-11 06:36:41 20.8 18 23.4
003B77A1 2019-04-11 06:05:15 20.8 18 23.5
003B77A1 2019-04-11 05:33:48 20.8 18 23.3
003B77A1 2019-04-11 05:02:22 20.9 18 23.3
003B77A1 2019-04-11 04:30:56 20.8 18 23.1
003B77A1 2019-04-11 03:59:31 20.8 18 23
003B77A1 2019-04-11 03:28:05 20.9 18 23
003B77A1 2019-04-11 02:56:39 20.9 18 23
003B77A1 2019-04-11 02:25:14 20.9 18 22.8
003B77A1 2019-04-11 01:53:50 20.9 18 22.7
003B77A1 2019-04-11 01:22:26 21 18 22.9
003B77A1 2019-04-11 00:51:01 21 18 22.8
003B77A1 2019-04-11 00:19:36 21 19 22.7
003B77A1 2019-04-10 23:48:12 21 19 22.7
003B77A1 2019-04-10 23:16:46 21 19 22.8
003B77A1 2019-04-10 22:45:21 21 19 22.7
003B77A1 2019-04-10 22:13:56 21 19 21.7
003B77A1 2019-04-10 21:42:30 21 18 21.6
003B77A1 2019-04-10 21:11:05 21 18 21.6
003B77A1 2019-04-10 20:39:41 20.9 18 20.2
003B77A1 2019-04-10 20:08:17 20.9 18 21.6
003B77A1 2019-04-10 19:36:52 20.9 18 21.7
003B77A1 2019-04-10 19:05:28 20.8 18 21.7
003B77A1 2019-04-10 18:34:04 20.8 18 21.3
003B77A1 2019-04-10 18:02:39 20.8 18 21.3
003B77A1 2019-04-10 17:31:16 20.8 19 21.1
003B77A1 2019-04-10 16:59:52 20.8 19 21.2
003B77A1 2019-04-10 16:28:29 20.8 19 21.2
003B77A1 2019-04-10 15:57:05 20.9 19 21.3
003B77A1 2019-04-10 15:25:41 20.9 19 21.4
003B77A1 2019-04-10 14:54:18 20.9 19 21.3
003B77A1 2019-04-10 14:22:53 21 20 21.5
003B77A1 2019-04-10 13:50:56 20.9 20 21.5
003B77A1 2019-04-10 13:19:31 20.9 20 21.4
003B77A1 2019-04-10 12:48:08 20.9 20 21.4
003B77A1 2019-04-10 12:16:44 20.8 20 21.3
003B77A1 2019-04-10 11:45:21 20.8 21 21.3
003B77A1 2019-04-10 11:13:58 20.8 21 21.4
003B77A1 2019-04-10 10:42:33 20.7 21 21.6
003B77A1 2019-04-10 10:11:10 20.8 21 21.5
003B77A1 2019-04-10 09:39:46 20.7 22 21.7
003B77A1 2019-04-10 09:08:22 20.7 22 21.8
003B77A1 2019-04-10 08:36:58 20.6 22 21.8
003B77A1 2019-04-10 08:05:34 20.6 22 21.9
003B77A1 2019-04-10 07:34:09 20.6 23 22
003B77A1 2019-04-10 07:02:45 20.6 23 21
003B77A1 2019-04-10 06:31:20 20.6 23 20.9
003B77A1 2019-04-10 05:59:56 20.6 23 21.1
003B77A1 2019-04-10 05:28:31 20.6 23 21.2
003B77A1 2019-04-10 04:57:06 20.6 23 21.3
003B77A1 2019-04-10 04:25:41 20.6 24 21.4
003B77A1 2019-04-10 03:54:17 20.6 24 21.4
003B77A1 2019-04-10 03:22:52 20.7 24 21.6
003B77A1 2019-04-10 02:51:28 20.7 25 21.3
003B77A1 2019-04-10 02:20:03 20.7 25 21.4
003B77A1 2019-04-10 01:48:39 20.7 25 21.6
003B77A1 2019-04-10 01:17:15 20.7 25 21.4
003B77A1 2019-04-10 00:45:52 20.7 25 21.4
003B77A1 2019-04-10 00:14:28 20.7 26 21.5
003B77A1 2019-04-09 23:43:04 20.8 26 21.5
003B77A1 2019-04-09 23:11:40 20.8 27 21.3
003B77A1 2019-04-09 22:40:15 20.8 27 21.5
003B77A1 2019-04-09 22:08:49 20.8 27 21.6
003B77A1 2019-04-09 21:37:25 20.8 27 21.3
003B77A1 2019-04-09 21:06:02 20.8 27 21.3
003B77A1 2019-04-09 20:34:35 20.7 27 21.4
003B77A1 2019-04-09 20:03:12 20.7 27 21.3
003B77A1 2019-04-09 19:31:44 20.7 27 21.2
003B77A1 2019-04-09 19:00:20 20.7 27 21.4
003B77A1 2019-04-09 18:28:54 20.8 27 21.4
003B77A1 2019-04-09 17:57:29 20.9 27 21.2
003B77A1 2019-04-09 17:26:05 20.9 27 21.5
003B77A1 2019-04-09 16:54:41 20.9 27 21.6
003B77A1 2019-04-09 16:23:17 20.9 27 21.8
003B77A1 2019-04-09 15:51:53 20.9 27 21.9
003B77A1 2019-04-09 15:20:28 20.9 26 22
003B77A1 2019-04-09 14:49:03 20.9 26 22
003B77A1 2019-04-09 14:17:40 20.9 26 22.1
003B77A1 2019-04-09 13:46:15 20.9 26 22.3
003B77A1 2019-04-09 13:14:51 21 26 22.4
003B77A1 2019-04-09 12:43:26 21 26 22.4
003B77A1 2019-04-09 12:12:01 21 26 22.7
003B77A1 2019-04-09 11:39:54 21 26 22.9
003B77A1 2019-04-09 11:08:30 20.9 26 23
003B77A1 2019-04-09 10:37:05 20.8 26 23.1
003B77A1 2019-04-09 10:05:40 20.8 26 23.3
003B77A1 2019-04-09 09:34:15 20.8 26 23.2
003B77A1 2019-04-09 09:02:50 20.8 25 23.3
003B77A1 2019-04-09 08:31:26 20.8 25 23.5
003B77A1 2019-04-09 08:00:01 20.8 25 23.6
003B77A1 2019-04-09 07:28:37 20.7 25 23.6
003B77A1 2019-04-09 06:57:13 20.8 25 23.6
003B77A1 2019-04-09 06:25:48 20.8 25 23.5
003B77A1 2019-04-09 05:54:25 20.8 25 23.4
003B77A1 2019-04-09 05:23:01 20.8 25 23.4
003B77A1 2019-04-09 04:51:36 20.8 25 23.5
003B77A1 2019-04-09 04:20:10 20.8 25 23.3
003B77A1 2019-04-09 03:48:46 20.8 25 23.2
003B77A1 2019-04-09 03:17:20 20.8 25 23.1
003B77A1 2019-04-09 02:14:28 20.8 25 22.7
003B77A1 2019-04-09 01:43:02 20.9 25 22.7
003B77A1 2019-04-09 01:11:35 20.9 25 22.6
003B77A1 2019-04-09 00:40:09 20.9 25 22.5
003B77A1 2019-04-09 00:08:41 20.9 25 22.4
003B77A1 2019-04-08 23:37:15 20.9 26 22.3
003B77A1 2019-04-08 23:05:49 20.9 26 22
003B77A1 2019-04-08 22:34:22 20.9 26 21.8
003B77A1 2019-04-08 22:02:57 20.9 26 21.5
003B77A1 2019-04-08 21:31:32 20.9 26 21.3
003B77A1 2019-04-08 21:00:09 21 26 21.1
003B77A1 2019-04-08 20:28:45 21 26 21.1
003B77A1 2019-04-08 19:57:21 21 26 20.7
003B77A1 2019-04-08 19:25:56 21 26 20.6
003B77A1 2019-04-08 18:54:31 20.9 26 20.6
003B77A1 2019-04-08 18:23:06 20.9 26 20.6
003B77A1 2019-04-08 17:51:41 20.9 26 20.5
003B77A1 2019-04-08 17:20:16 21 26 20.6
003B77A1 2019-04-08 16:48:51 21 26 20.6
003B77A1 2019-04-08 16:17:25 21 26 20.9
003B77A1 2019-04-08 15:45:59 21 27 20.7
003B77A1 2019-04-08 15:14:34 21 26 20.9
003B77A1 2019-04-08 14:43:11 21 26 20.8
003B77A1 2019-04-08 14:11:47 21 26 20.7
003B77A1 2019-04-08 13:40:24 21 26 20.9
003B77A1 2019-04-08 13:09:01 21 26 21.1
003B77A1 2019-04-08 12:37:33 20.8 26 21
003B77A1 2019-04-08 12:06:09 20.8 25 20.9
003B77A1 2019-04-08 11:34:43 20.7 25 20.7
003B77A1 2019-04-08 11:03:18 20.7 25 20.7
003B77A1 2019-04-08 10:31:54 20.6 25 20.8
003B77A1 2019-04-08 10:00:28 20.6 25 20.9
003B77A1 2019-04-08 09:28:30 20.5 24 20.9
003B77A1 2019-04-08 08:57:04 20.5 24 21.1
003B77A1 2019-04-08 08:25:40 20.4 24 21.2
003B77A1 2019-04-08 07:54:14 20.4 23 21.3
003B77A1 2019-04-08 07:22:47 20.4 23 21.3
003B77A1 2019-04-08 06:51:23 20.4 23 22.3
003B77A1 2019-04-08 06:19:55 20.4 23 22.2
003B77A1 2019-04-08 05:48:27 20.5 23 22.1
003B77A1 2019-04-08 05:17:00 20.5 23 22.1
003B77A1 2019-04-08 04:45:32 20.5 23 22.3
003B77A1 2019-04-08 04:14:06 20.5 23 22.2
003B77A1 2019-04-08 03:42:41 20.5 23 22
003B77A1 2019-04-08 03:11:15 20.6 23 22.1
003B77A1 2019-04-08 02:39:50 20.6 23 21.9
003B77A1 2019-04-08 02:08:24 20.6 23 22
003B77A1 2019-04-08 01:36:57 20.6 23 22.2
003B77A1 2019-04-08 01:05:31 20.7 23 22.1
003B77A1 2019-04-08 00:34:05 20.7 23 22.1
003B77A1 2019-04-08 00:02:38 20.7 23 22.2
003B77A1 2019-04-07 23:31:13 20.7 23 22.2
003B77A1 2019-04-07 22:59:47 20.8 23 22.3
003B77A1 2019-04-07 22:28:23 20.8 22 22.4
003B77A1 2019-04-07 21:56:54 20.8 22 23.2
003B77A1 2019-04-07 21:25:29 20.9 22 23.1
003B77A1 2019-04-07 20:54:04 20.9 22 23.3
003B77A1 2019-04-07 20:22:38 21 22 23.3
003B77A1 2019-04-07 19:51:13 21 22 23.4
003B77A1 2019-04-07 19:19:47 21 22 23.4
003B77A1 2019-04-07 18:48:21 21 22 23.3
003B77A1 2019-04-07 18:16:55 21 22 23.3
003B77A1 2019-04-07 17:45:28 21 22 22.5
003B77A1 2019-04-07 17:14:01 20.9 22 22.6
003B77A1 2019-04-07 16:42:36 20.9 22 22.7
003B77A1 2019-04-07 16:11:06 20.8 22 22.7
003B77A1 2019-04-07 15:39:39 20.7 22 22.7
003B77A1 2019-04-07 15:08:12 20.6 22 22.8
003B77A1 2019-04-07 14:36:45 20.6 22 22.7
003B77A1 2019-04-07 14:05:18 20.6 21 22.7
003B77A1 2019-04-07 13:33:51 20.5 21 22.7
003B77A1 2019-04-07 13:02:23 20.5 21 22.6
003B77A1 2019-04-07 12:30:58 20.5 21 22.6
003B77A1 2019-04-07 11:59:33 20.5 21 22.7
003B77A1 2019-04-07 11:28:07 20.5 21 22.7
003B77A1 2019-04-07 10:56:41 20.5 21 22.7
003B77A1 2019-04-07 10:25:16 20.5 21 22.6
003B77A1 2019-04-07 09:53:51 20.5 21 22.5
003B77A1 2019-04-07 09:22:24 20.5 21 21.5
003B77A1 2019-04-07 08:50:59 20.5 21 21.6
003B77A1 2019-04-07 08:19:33 20.5 21 20.9
003B77A1 2019-04-07 07:48:07 20.6 21 21.1
003B77A1 2019-04-07 07:16:00 20.6 21 21
003B77A1 2019-04-07 06:44:34 20.6 21 21
003B77A1 2019-04-07 06:13:08 20.7 21 20.9
003B77A1 2019-04-07 05:41:44 20.7 21 21.1
003B77A1 2019-04-07 05:10:16 20.7 21 21
003B77A1 2019-04-07 04:38:49 20.7 21 21.1
003B77A1 2019-04-07 04:07:22 20.8 21 20.9
003B77A1 2019-04-07 03:35:55 20.8 21 20.8
003B77A1 2019-04-07 03:04:27 20.9 21 20.8
003B77A1 2019-04-07 02:33:01 20.9 21 20.7
003B77A1 2019-04-07 02:01:33 20.9 21 20.6
003B77A1 2019-04-07 01:30:07 21 21 20.7
003B77A1 2019-04-07 00:58:39 21 21 20.8
003B77A1 2019-04-07 00:27:13 21.1 21 20.7
003B77A1 2019-04-06 23:55:47 21.1 21 20.9
003B77A1 2019-04-06 23:24:21 21.2 21 20.6
003B77A1 2019-04-06 22:52:57 21.2 21 20.5
003B77A1 2019-04-06 22:21:31 21.2 21 20.4
003B77A1 2019-04-06 21:50:07 21.3 21 20.5
003B77A1 2019-04-06 21:18:41 21.3 21 20.7
003B77A1 2019-04-06 20:47:16 21.3 21 20.7
003B77A1 2019-04-06 20:15:50 21.3 21 20.8
003B77A1 2019-04-06 19:44:25 21.3 21 20.8
003B77A1 2019-04-06 19:12:59 21.3 21 20.8
003B77A1 2019-04-06 18:41:34 21.3 21 20.8
003B77A1 2019-04-06 18:10:11 21.3 21 20.8
003B77A1 2019-04-06 17:38:43 21.2 21 20.8
003B77A1 2019-04-06 17:07:19 21.2 21 20.8
003B77A1 2019-04-06 16:35:53 21 21 20.8
003B77A1 2019-04-06 16:04:26 20.9 21 20.7
003B77A1 2019-04-06 15:33:01 20.8 21 20.4
003B77A1 2019-04-06 15:01:34 20.7 21 20.3
003B77A1 2019-04-06 14:30:09 20.6 21 20.6
003B77A1 2019-04-06 13:58:43 20.6 21 20.6
003B77A1 2019-04-06 13:27:17 20.7 21 20.6
003B77A1 2019-04-06 12:55:52 20.6 21 20.7
003B77A1 2019-04-06 12:24:26 20.7 21 20.6
003B77A1 2019-04-06 11:53:01 20.6 21 20.5
003B77A1 2019-04-06 11:21:36 20.6 21 20.7
003B77A1 2019-04-06 10:50:13 20.6 20 20.5
003B77A1 2019-04-06 10:18:45 20.6 20 20.9
003B77A1 2019-04-06 09:47:19 20.6 20 21
003B77A1 2019-04-06 09:15:52 20.6 20 22.1
003B77A1 2019-04-06 08:44:27 20.6 20 22
003B77A1 2019-04-06 08:13:01 20.7 20 21.9
003B77A1 2019-04-06 07:41:35 20.7 20 21.8
003B77A1 2019-04-06 07:10:09 20.7 20 21.8
003B77A1 2019-04-06 06:38:44 20.8 20 21.7
003B77A1 2019-04-06 06:07:18 20.8 20 21.5
003B77A1 2019-04-06 05:35:51 20.9 20 21.4
003B77A1 2019-04-06 05:03:50 20.9 20 21.2
003B77A1 2019-04-06 04:32:22 20.9 20 21.2
003B77A1 2019-04-06 04:00:56 21 20 21.1
003B77A1 2019-04-06 03:29:29 21 20 20.9
003B77A1 2019-04-06 02:58:03 21.1 20 20.9
003B77A1 2019-04-06 02:26:37 21.1 20 20.9
003B77A1 2019-04-06 01:55:11 21.2 20 20.6
003B77A1 2019-04-06 01:23:45 21.3 20 20.4
003B77A1 2019-04-06 00:52:18 21.3 19 20.3
003B77A1 2019-04-06 00:20:52 21.4 19 21.5
003B77A1 2019-04-05 23:49:25 21.5 19 21.5
003B77A1 2019-04-05 23:18:00 21.6 19 21.4
003B77A1 2019-04-05 22:46:36 21.7 19 21.2
003B77A1 2019-04-05 22:15:09 21.8 19 21.1
003B77A1 2019-04-05 21:43:45 21.9 19 20.8
003B77A1 2019-04-05 21:12:21 22 19 20.6
003B77A1 2019-04-05 20:40:58 21.9 19 18.9
003B77A1 2019-04-05 20:09:34 22 19 18.9
003B77A1 2019-04-05 19:38:09 22 19 18.9
003B77A1 2019-04-05 19:06:45 21.9 19 19.1
003B77A1 2019-04-05 18:35:21 21.8 18 18.8
003B77A1 2019-04-05 18:03:56 21.8 19 18.8
003B77A1 2019-04-05 17:32:34 21.8 19 18.9
003B77A1 2019-04-05 17:01:09 21.8 20 19
003B77A1 2019-04-05 16:29:45 21.7 20 19
003B77A1 2019-04-05 15:58:25 21.7 21 19.2
003B77A1 2019-04-05 15:26:57 21.6 21 19.1
003B77A1 2019-04-05 14:55:32 21.5 22 19.1
003B77A1 2019-04-05 14:24:09 21.4 21 19.1
003B77A1 2019-04-05 13:52:44 21.4 22 19.1
003B77A1 2019-04-05 13:21:18 21.4 22 19.2
003B77A1 2019-04-05 12:49:53 21.3 22 19.3
003B77A1 2019-04-05 12:18:28 21.3 22 19.3
003B77A1 2019-04-05 11:47:03 21.3 22 19.5
003B77A1 2019-04-05 11:15:39 21.3 22 17.2
003B77A1 2019-04-05 10:44:14 21.3 22 17.3
003B77A1 2019-04-05 10:12:50 21.2 21 17.5
003B77A1 2019-04-05 09:41:27 21.1 20 17.5
003B77A1 2019-04-05 09:10:03 21.1 20 17.4
003B77A1 2019-04-05 08:38:39 21.1 19 17.3
003B77A1 2019-04-05 08:07:17 21.1 19 17.3
003B77A1 2019-04-05 07:35:54 21.1 19 17.3
003B77A1 2019-04-05 07:04:31 21.1 19 17.7
003B77A1 2019-04-05 06:33:07 21.2 19 17.6
003B77A1 2019-04-05 06:01:45 21.1 19 17.3
003B77A1 2019-04-05 05:30:22 21.2 19 17.2
003B77A1 2019-04-05 04:58:58 21.2 19 17.2
003B77A1 2019-04-05 04:27:34 21.2 19 17.2
003B77A1 2019-04-05 03:56:10 21.3 19 17
003B77A1 2019-04-05 03:24:46 21.3 19 16.9
003B77A1 2019-04-05 02:52:49 21.3 19 16.5
003B77A1 2019-04-05 02:21:25 21.3 19 16.6
003B77A1 2019-04-05 01:50:01 21.4 19 17.1
003B77A1 2019-04-05 01:18:37 21.4 19 17.5
003B77A1 2019-04-05 00:47:12 21.5 19 17.7
003B77A1 2019-04-05 00:15:47 21.5 19 17.6
003B77A1 2019-04-04 23:44:23 21.5 19 17.7
003B77A1 2019-04-04 23:12:59 21.6 19 17.5
003B77A1 2019-04-04 22:41:36 21.6 19 17.6
003B77A1 2019-04-04 22:10:11 21.6 18 17.6
003B77A1 2019-04-04 21:38:47 21.6 18 17.4
003B77A1 2019-04-04 21:07:23 21.6 18 17.7
003B77A1 2019-04-04 20:35:59 21.6 18 17.9
003B77A1 2019-04-04 20:04:36 21.6 18 17.9
003B77A1 2019-04-04 19:33:13 21.6 17 18.2
003B77A1 2019-04-04 19:01:48 21.5 17 18.1
003B77A1 2019-04-04 18:30:23 21.6 17 18.1
003B77A1 2019-04-04 17:58:58 21.6 18 18.3
003B77A1 2019-04-04 17:27:34 21.6 18 18.9
003B77A1 2019-04-04 16:56:09 21.6 18 19
003B77A1 2019-04-04 16:24:45 21.5 19 19.5
003B77A1 2019-04-04 15:53:22 21.5 19 21.1
003B77A1 2019-04-04 15:21:58 21.4 20 21.3
003B77A1 2019-04-04 14:50:35 21.3 20 21.4
003B77A1 2019-04-04 14:19:10 21.3 20 21.7
003B77A1 2019-04-04 13:47:47 21.2 20 21.7
003B77A1 2019-04-04 13:16:23 21.2 20 21.5
003B77A1 2019-04-04 12:45:00 21.2 20 21.4
003B77A1 2019-04-04 12:13:36 21.1 20 21.4
003B77A1 2019-04-04 11:42:13 21.1 20 21.5
003B77A1 2019-04-04 11:10:49 21.1 20 21.6
003B77A1 2019-04-04 10:39:25 21.1 20 21.7
003B77A1 2019-04-04 10:08:00 21.1 20 21.7
003B77A1 2019-04-04 09:36:36 21 20 21.9
003B77A1 2019-04-04 09:05:11 21 20 21.9
003B77A1 2019-04-04 08:33:48 21 20 21.8
003B77A1 2019-04-04 08:02:24 21 20 21.8
003B77A1 2019-04-04 07:31:01 21.1 20 21.7
003B77A1 2019-04-04 06:59:37 21.1 20 21.6
003B77A1 2019-04-04 06:28:12 21.1 20 21.6
003B77A1 2019-04-04 05:56:46 21.2 20 21.5
003B77A1 2019-04-04 05:25:21 21.2 20 21.4
003B77A1 2019-04-04 04:53:55 21.2 20 21.4
003B77A1 2019-04-04 04:22:31 21.2 20 21.4
003B77A1 2019-04-04 03:51:08 21.3 20 21.4
003B77A1 2019-04-04 03:19:45 21.3 20 21.2
003B77A1 2019-04-04 02:48:21 21.3 20 19.6
003B77A1 2019-04-04 02:16:57 21.4 20 19.7
003B77A1 2019-04-04 01:45:32 21.4 20 19.8
003B77A1 2019-04-04 01:14:09 21.5 20 19.7
003B77A1 2019-04-04 00:42:13 21.5 19 20.2
003B77A1 2019-04-04 00:10:49 21.6 19 20.2
003B77A1 2019-04-03 23:39:25 21.6 19 20.3
003B77A1 2019-04-03 23:08:01 21.6 19 20.3
003B77A1 2019-04-03 22:36:38 21.7 19 20.3
003B77A1 2019-04-03 22:05:17 21.7 19 20.4
003B77A1 2019-04-03 21:33:52 21.8 19 20.4
003B77A1 2019-04-03 21:02:29 21.7 19 20.1
003B77A1 2019-04-03 20:31:05 21.8 19 20
003B77A1 2019-04-03 19:59:44 21.8 19 20.3
003B77A1 2019-04-03 19:28:18 21.8 18 21.6
003B77A1 2019-04-03 18:56:54 21.8 18 21.8
003B77A1 2019-04-03 18:25:30 21.8 18 22
003B77A1 2019-04-03 17:54:07 21.9 19 22
003B77A1 2019-04-03 17:22:43 22 20 22
003B77A1 2019-04-03 16:51:19 21.9 20 22
003B77A1 2019-04-03 16:19:55 21.9 20 22
003B77A1 2019-04-03 15:48:29 21.7 21 21.8
003B77A1 2019-04-03 15:17:05 21.6 21 21.9
003B77A1 2019-04-03 14:45:41 21.5 21 21.8
003B77A1 2019-04-03 14:14:16 21.4 21 21.8
003B77A1 2019-04-03 13:42:51 21.3 21 22.7
003B77A1 2019-04-03 13:11:27 21.3 21 22.5
003B77A1 2019-04-03 12:40:10 21.2 20 22.4
003B77A1 2019-04-03 12:08:44 21.3 21 23.1
003B77A1 2019-04-03 11:37:23 21.2 21 23
003B77A1 2019-04-03 11:06:02 21.2 21 23.1
003B77A1 2019-04-03 10:34:42 21.1 21 23
003B77A1 2019-04-03 10:03:21 21.1 21 22.9
003B77A1 2019-04-03 09:32:00 21 20 22.8
003B77A1 2019-04-03 09:00:36 20.9 20 22.8
003B77A1 2019-04-03 08:29:11 20.9 20 22.8
003B77A1 2019-04-03 07:57:47 20.9 20 22.8
003B77A1 2019-04-03 07:26:22 20.9 20 22.9
003B77A1 2019-04-03 06:54:56 20.9 20 22.7
003B77A1 2019-04-03 06:23:31 20.9 20 22
003B77A1 2019-04-03 05:52:06 20.9 20 21.8
003B77A1 2019-04-03 05:20:41 20.9 20 21.6
003B77A1 2019-04-03 04:49:14 20.9 20 21.6
003B77A1 2019-04-03 04:17:49 21 20 21.6
003B77A1 2019-04-03 03:46:23 21 19 21.5
003B77A1 2019-04-03 03:14:59 21 19 21.5
003B77A1 2019-04-03 02:43:35 21 19 21.5
003B77A1 2019-04-03 02:12:10 21.1 19 21.6
003B77A1 2019-04-03 01:40:47 21.1 19 21.7
003B77A1 2019-04-03 01:09:22 21.1 19 21.8
003B77A1 2019-04-03 00:37:58 21.2 19 20.7
003B77A1 2019-04-03 00:06:34 21.2 19 20.7
003B77A1 2019-04-02 23:35:10 21.3 19 20.7
003B77A1 2019-04-02 23:03:46 21.3 18 20.7
003B77A1 2019-04-02 22:31:50 21.3 18 20.4
003B77A1 2019-04-02 22:00:26 21.4 18 20.4
003B77A1 2019-04-02 21:29:04 21.4 18 20.4
003B77A1 2019-04-02 20:57:41 21.4 18 20.3
003B77A1 2019-04-02 20:26:18 21.4 18 20.3
003B77A1 2019-04-02 19:54:54 21.4 18 20.1
003B77A1 2019-04-02 19:23:31 21.5 17 20.1
003B77A1 2019-04-02 18:52:07 21.4 17 19.9
003B77A1 2019-04-02 18:20:43 21.5 17 20
003B77A1 2019-04-02 17:49:19 21.5 18 19.6
003B77A1 2019-04-02 17:17:56 21.6 18 19.6
003B77A1 2019-04-02 16:46:32 21.6 19 19.5
003B77A1 2019-04-02 16:15:08 21.5 20 19.5
003B77A1 2019-04-02 15:43:45 21.5 21 19.4
003B77A1 2019-04-02 15:12:21 21.3 22 19.5
003B77A1 2019-04-02 14:40:58 21.2 23 19.5
003B77A1 2019-04-02 14:09:34 21.1 23 19.5
003B77A1 2019-04-02 13:38:09 21 23 19.1
003B77A1 2019-04-02 13:06:46 20.9 23 19.1
003B77A1 2019-04-02 12:35:22 20.9 23 18.8
003B77A1 2019-04-02 12:03:59 20.9 23 18.5
003B77A1 2019-04-02 11:32:35 20.9 22 18.7
003B77A1 2019-04-02 11:01:11 20.9 22 18.7
003B77A1 2019-04-02 10:29:48 20.9 22 15.4
003B77A1 2019-04-02 09:58:24 20.9 22 15.5
003B77A1 2019-04-02 09:27:01 20.8 21 15.6
003B77A1 2019-04-02 08:24:14 20.8 20 15.6
003B77A1 2019-04-02 07:52:50 20.8 20 15.5
003B77A1 2019-04-02 07:21:26 20.8 20 15.5
003B77A1 2019-04-02 06:50:02 20.8 20 15.4
003B77A1 2019-04-02 06:18:38 20.8 19 15.5
003B77A1 2019-04-02 05:47:14 20.8 19 15.7
003B77A1 2019-04-02 05:15:52 20.8 19 16
003B77A1 2019-04-02 04:44:28 20.8 19 15.8
003B77A1 2019-04-02 04:13:04 20.9 19 15.8
003B77A1 2019-04-02 03:41:41 20.9 19 15.8
003B77A1 2019-04-02 03:10:18 20.9 19 15.7
003B77A1 2019-04-02 02:38:54 20.9 18 16.2
003B77A1 2019-04-02 02:07:33 21 18 17
003B77A1 2019-04-02 01:36:09 21 18 17
003B77A1 2019-04-02 01:04:47 21 18 17
003B77A1 2019-04-02 00:33:23 21.1 18 17.3
003B77A1 2019-04-02 00:02:02 21.1 18 17.7
003B77A1 2019-04-01 23:30:36 21.2 17 17.5
003B77A1 2019-04-01 22:59:09 21.2 17 17.7
003B77A1 2019-04-01 22:27:44 21.2 17 17.7
003B77A1 2019-04-01 21:56:17 21.2 17 17.5
003B77A1 2019-04-01 21:24:50 21.2 17 17.5
003B77A1 2019-04-01 20:53:25 21.3 16 17.8
003B77A1 2019-04-01 20:21:27 21.3 16 18.3
003B77A1 2019-04-01 19:50:00 21.2 16 18.8
003B77A1 2019-04-01 19:18:35 21.2 16 19.3
003B77A1 2019-04-01 18:47:08 21.2 16 19.7
003B77A1 2019-04-01 18:15:43 21.2 16 20
003B77A1 2019-04-01 17:44:17 21.3 16 20.2
003B77A1 2019-04-01 17:12:53 21.2 16 20.2
003B77A1 2019-04-01 16:41:28 21.2 17 20.4
003B77A1 2019-04-01 16:10:02 21.1 17 20.6
003B77A1 2019-04-01 15:38:37 20.9 17 20.9
003B77A1 2019-04-01 15:07:11 20.9 18 21.1
003B77A1 2019-04-01 14:35:44 20.7 19 21.1
003B77A1 2019-04-01 14:04:18 20.7 19 21.2
003B77A1 2019-04-01 13:32:50 20.7 20 21.1
003B77A1 2019-04-01 13:01:22 20.7 20 21.2
003B77A1 2019-04-01 12:29:54 20.7 20 21.3
003B77A1 2019-04-01 11:58:25 20.7 21 21.3
003B77A1 2019-04-01 11:26:58 20.7 21 21.4
003B77A1 2019-04-01 10:55:33 20.7 21 21.5
003B77A1 2019-04-01 10:24:07 20.6 22 22.5
003B77A1 2019-04-01 09:52:39 20.6 22 22.8
003B77A1 2019-04-01 09:21:12 20.6 22 22.8
003B77A1 2019-04-01 08:49:45 20.6 22 23
003B77A1 2019-04-01 08:18:18 20.6 22 23
003B77A1 2019-04-01 07:46:51 20.6 22 23
003B77A1 2019-04-01 07:15:25 20.6 23 23
003B77A1 2019-04-01 06:43:59 20.6 23 23
003B77A1 2019-04-01 06:12:34 20.6 23 22.8
003B77A1 2019-04-01 05:41:09 20.6 23 22.9
003B77A1 2019-04-01 05:09:43 20.6 23 22.8
003B77A1 2019-04-01 04:38:16 20.6 23 22.8
003B77A1 2019-04-01 04:06:51 20.6 23 22.8
003B77A1 2019-04-01 03:35:25 20.6 23 22.8
003B77A1 2019-04-01 03:03:58 20.6 23 22.9
003B77A1 2019-04-01 02:32:32 20.6 23 22.8
003B77A1 2019-04-01 02:01:06 20.7 23 23
003B77A1 2019-04-01 01:29:40 20.7 23 23.2
003B77A1 2019-04-01 00:58:15 20.7 24 23.3
003B77A1 2019-04-01 00:26:49 20.7 24 23.3
003B77A1 2019-03-31 23:55:24 20.7 24 23.3
003B77A1 2019-03-31 23:23:58 20.8 24 23.4
003B77A1 2019-03-31 22:52:32 20.8 25 23.5
003B77A1 2019-03-31 22:21:04 20.8 25 23.5
003B77A1 2019-03-31 21:49:37 20.9 25 23.4
003B77A1 2019-03-31 21:18:11 20.9 26 22.7
003B77A1 2019-03-31 20:46:44 20.9 26 22.6
003B77A1 2019-03-31 20:15:17 20.9 27 22.8
003B77A1 2019-03-31 19:43:51 20.9 27 22.7
003B77A1 2019-03-31 19:12:22 20.9 27 22.7
003B77A1 2019-03-31 18:40:54 20.8 27 22.7
003B77A1 2019-03-31 18:08:52 20.8 27 22.6
003B77A1 2019-03-31 17:37:23 20.8 27 22.7
003B77A1 2019-03-31 17:05:54 20.7 27 22.6
003B77A1 2019-03-31 16:34:26 20.7 27 22.7
003B77A1 2019-03-31 16:02:58 20.7 27 22.6
003B77A1 2019-03-31 15:31:30 20.7 27 22.7
003B77A1 2019-03-31 15:00:04 20.7 27 22.6
003B77A1 2019-03-31 14:28:37 20.7 27 22.5
003B77A1 2019-03-31 13:57:10 20.7 27 22.6
003B77A1 2019-03-31 13:25:43 20.7 27 22.4
003B77A1 2019-03-31 12:54:15 20.7 27 23.1
003B77A1 2019-03-31 12:22:49 20.7 27 22.8
003B77A1 2019-03-31 11:51:21 20.7 27 22.8
003B77A1 2019-03-31 11:19:54 20.7 27 22.9
003B77A1 2019-03-31 10:48:28 20.6 27 22.8
003B77A1 2019-03-31 10:17:01 20.7 27 22.8
003B77A1 2019-03-31 09:45:36 20.6 27 23.6
003B77A1 2019-03-31 09:14:07 20.7 27 23.7
003B77A1 2019-03-31 08:42:40 20.7 27 23.7
003B77A1 2019-03-31 08:11:12 20.7 28 23.6
003B77A1 2019-03-31 07:39:45 20.7 28 23.6
003B77A1 2019-03-31 07:08:18 20.7 28 23.6
003B77A1 2019-03-31 06:36:51 20.7 28 23.7
003B77A1 2019-03-31 06:05:24 20.7 28 23.6
003B77A1 2019-03-31 05:33:57 20.7 28 23.5
003B77A1 2019-03-31 05:02:30 20.7 28 23.5
003B77A1 2019-03-31 04:31:03 20.7 28 23.6
003B77A1 2019-03-31 02:59:36 20.7 27 23.5
003B77A1 2019-03-31 02:28:10 20.7 27 23.6
003B77A1 2019-03-31 01:56:44 20.7 27 23.6
003B77A1 2019-03-31 01:25:19 20.7 27 23.5
003B77A1 2019-03-31 00:53:54 20.7 27 23.5
003B77A1 2019-03-31 00:22:30 20.8 27 23.4
003B77A1 2019-03-30 23:51:05 20.8 27 23.3
003B77A1 2019-03-30 23:19:40 20.8 27 23.2
003B77A1 2019-03-30 22:48:15 20.8 27 22.3
003B77A1 2019-03-30 22:16:49 20.9 27 22.4
003B77A1 2019-03-30 21:45:21 20.9 27 22.4
003B77A1 2019-03-30 21:13:54 20.9 27 22.4
003B77A1 2019-03-30 20:42:27 20.9 27 22.3
003B77A1 2019-03-30 20:11:00 20.9 27 22.2
003B77A1 2019-03-30 19:39:33 20.9 27 21.2
003B77A1 2019-03-30 19:08:06 21 27 20.9
003B77A1 2019-03-30 18:36:39 21 27 20.8
003B77A1 2019-03-30 18:05:12 21 27 21.2
003B77A1 2019-03-30 17:33:47 21 27 21.1
003B77A1 2019-03-30 17:02:19 21.1 27 21.1
003B77A1 2019-03-30 16:30:52 21.1 27 21.1
003B77A1 2019-03-30 15:59:26 21 27 21.3
003B77A1 2019-03-30 15:28:00 21 27 22.3
003B77A1 2019-03-30 14:56:01 21 27 22.5
003B77A1 2019-03-30 14:24:34 20.9 27 22.4
003B77A1 2019-03-30 13:53:09 20.9 27 22.2
003B77A1 2019-03-30 13:21:43 20.9 27 22.2
003B77A1 2019-03-30 12:50:17 20.9 27 22.2
003B77A1 2019-03-30 12:18:50 20.8 27 22.2
003B77A1 2019-03-30 11:47:24 20.8 27 22.3
003B77A1 2019-03-30 11:15:57 20.8 27 22.3
003B77A1 2019-03-30 10:44:29 20.8 27 22.3
003B77A1 2019-03-30 10:13:03 20.8 27 22.5
003B77A1 2019-03-30 09:41:36 20.7 27 22.6
003B77A1 2019-03-30 09:10:10 20.7 27 22.4
003B77A1 2019-03-30 08:38:42 20.8 27 22.4
003B77A1 2019-03-30 08:07:15 20.7 27 22.4
003B77A1 2019-03-30 07:35:48 20.7 27 22.3
003B77A1 2019-03-30 07:04:20 20.7 27 22.3
003B77A1 2019-03-30 06:32:54 20.8 27 22.3
003B77A1 2019-03-30 06:01:28 20.8 27 22.2
003B77A1 2019-03-30 05:30:02 20.8 27 21.9
003B77A1 2019-03-30 04:58:37 20.8 27 21.8
003B77A1 2019-03-30 04:27:11 20.8 27 21.7
003B77A1 2019-03-30 03:55:45 20.8 27 21.5
003B77A1 2019-03-30 03:24:18 20.8 27 21.3
003B77A1 2019-03-30 02:52:53 20.9 27 20
003B77A1 2019-03-30 02:21:27 20.9 28 19.6
003B77A1 2019-03-30 01:50:00 20.9 28 19.3
003B77A1 2019-03-30 01:18:34 20.9 28 19.2
003B77A1 2019-03-30 00:47:09 21 28 19.5
003B77A1 2019-03-30 00:15:43 21 28 19.6
003B77A1 2019-03-29 23:44:17 21 28 19.5
003B77A1 2019-03-29 23:12:51 21.1 28 21.1
003B77A1 2019-03-29 22:41:24 21.1 28 21
003B77A1 2019-03-29 22:10:01 21.1 28 21
003B77A1 2019-03-29 21:38:34 21.1 28 21
003B77A1 2019-03-29 21:07:10 21.1 29 20.8
003B77A1 2019-03-29 20:35:45 21.1 28 20.7
003B77A1 2019-03-29 20:04:20 21.1 28 20.9
003B77A1 2019-03-29 19:32:56 21.1 28 20.7
003B77A1 2019-03-29 19:01:30 21.1 28 20.6
003B77A1 2019-03-29 18:30:05 21.1 28 20.7
003B77A1 2019-03-29 17:58:39 21.1 28 20.7
003B77A1 2019-03-29 17:27:12 21.1 28 20.7
003B77A1 2019-03-29 16:55:46 21.2 28 20.7
003B77A1 2019-03-29 16:24:18 21.2 28 20.7
003B77A1 2019-03-29 15:52:51 21.2 28 20.7
003B77A1 2019-03-29 15:21:25 21.2 28 20.6
003B77A1 2019-03-29 14:49:58 21.2 28 20.8
003B77A1 2019-03-29 14:18:31 21.2 28 20.8
003B77A1 2019-03-29 13:47:03 21.2 28 21
003B77A1 2019-03-29 13:15:39 21.1 28 20.9
003B77A1 2019-03-29 12:43:37 21.1 27 21.1
003B77A1 2019-03-29 12:12:10 21.1 27 21.1
003B77A1 2019-03-29 11:40:45 21.1 27 21
003B77A1 2019-03-29 11:09:19 21.1 27 21
003B77A1 2019-03-29 10:37:54 21.1 27 21
003B77A1 2019-03-29 10:06:30 21 27 20.8
003B77A1 2019-03-29 09:35:02 21 27 20.9
003B77A1 2019-03-29 09:03:36 20.9 26 20.9
003B77A1 2019-03-29 08:32:12 20.9 26 20.8
003B77A1 2019-03-29 08:00:46 20.8 25 20.8
003B77A1 2019-03-29 07:29:22 20.8 25 20.6
003B77A1 2019-03-29 06:57:57 20.8 25 20.6
003B77A1 2019-03-29 06:26:32 20.8 25 20.8
003B77A1 2019-03-29 05:55:07 20.8 25 20.7
003B77A1 2019-03-29 05:23:41 20.9 25 20.6
003B77A1 2019-03-29 04:52:14 20.9 25 20.5
003B77A1 2019-03-29 04:20:47 21 25 20.5
003B77A1 2019-03-29 03:49:20 21 25 20.5
003B77A1 2019-03-29 03:17:54 21.1 25 20.4
003B77A1 2019-03-29 02:46:30 21.1 25 20.4
003B77A1 2019-03-29 02:15:06 21.1 25 20.2
003B77A1 2019-03-29 01:43:40 21.2 25 20.4
003B77A1 2019-03-29 01:12:18 21.2 25 20
003B77A1 2019-03-29 00:40:50 21.1 25 20
003B77A1 2019-03-29 00:09:25 21.2 25 19.9
003B77A1 2019-03-28 23:38:01 21.2 25 19.6
003B77A1 2019-03-28 23:06:37 21.2 25 19.7
003B77A1 2019-03-28 22:35:14 21.2 25 19.8
003B77A1 2019-03-28 22:03:50 21.2 25 17.7
003B77A1 2019-03-28 21:32:26 21.3 24 17.9
003B77A1 2019-03-28 21:01:02 21.3 24 17.9
003B77A1 2019-03-28 20:29:37 21.3 24 17.8
003B77A1 2019-03-28 19:58:12 21.2 24 18.4
003B77A1 2019-03-28 19:26:48 21.2 24 18.6
003B77A1 2019-03-28 18:55:24 21.2 24 18.7
003B77A1 2019-03-28 18:23:59 21.2 24 20.4
003B77A1 2019-03-28 17:52:36 21.3 24 21.6
003B77A1 2019-03-28 17:21:12 21.3 24 21.9
003B77A1 2019-03-28 16:49:48 21.3 24 22
003B77A1 2019-03-28 16:18:24 21.3 24 22
003B77A1 2019-03-28 15:46:58 21.2 24 22.2
003B77A1 2019-03-28 15:15:33 21.2 23 22.3
003B77A1 2019-03-28 14:44:07 21.2 23 22.4
003B77A1 2019-03-28 14:12:42 21.1 23 22.6
003B77A1 2019-03-28 13:41:16 21.1 23 22.6
003B77A1 2019-03-28 13:09:51 21.1 23 22.6
003B77A1 2019-03-28 12:38:27 21 22 22.9
003B77A1 2019-03-28 12:07:03 21 22 23
003B77A1 2019-03-28 11:35:40 21 22 23.1
003B77A1 2019-03-28 11:04:16 21 21 23.1
003B77A1 2019-03-28 10:32:18 21 21 23.2
003B77A1 2019-03-28 10:00:55 20.9 21 23.2
003B77A1 2019-03-28 09:29:32 21 20 23.2
003B77A1 2019-03-28 08:58:05 20.9 20 23.3
003B77A1 2019-03-28 08:26:41 20.9 20 23.3
003B77A1 2019-03-28 07:55:16 20.8 20 23.4
003B77A1 2019-03-28 07:23:52 20.8 19 23.3
003B77A1 2019-03-28 06:52:28 20.8 19 23.3
003B77A1 2019-03-28 06:21:03 20.8 19 23.3
003B77A1 2019-03-28 05:49:38 20.8 19 22.4
003B77A1 2019-03-28 05:18:13 20.8 19 21.4
003B77A1 2019-03-28 04:46:47 20.8 19 21.3
003B77A1 2019-03-28 04:15:21 20.8 19 21.2
003B77A1 2019-03-28 03:43:55 20.9 19 21.3
003B77A1 2019-03-28 03:12:31 20.9 19 21.1
003B77A1 2019-03-28 02:41:07 20.9 19 20.9
003B77A1 2019-03-28 02:09:43 20.9 18 20.9
003B77A1 2019-03-28 01:38:18 20.9 18 21.9
003B77A1 2019-03-28 01:06:53 20.9 18 22.9
003B77A1 2019-03-28 00:35:28 21 18 23.6
003B77A1 2019-03-28 00:04:03 21 17 24.1
003B77A1 2019-03-27 23:32:37 21 17 24.1
003B77A1 2019-03-27 23:01:12 21 17 24.6
003B77A1 2019-03-27 22:29:47 21 17 24.6
003B77A1 2019-03-27 21:58:22 21.1 16 24.7
003B77A1 2019-03-27 21:26:57 21.1 16 24.6
003B77A1 2019-03-27 20:55:32 21.1 16 24.6
003B77A1 2019-03-27 20:24:08 21.2 16 24.6
003B77A1 2019-03-27 19:52:42 21.2 16 24.5
003B77A1 2019-03-27 19:21:16 21.2 15 24.5
003B77A1 2019-03-27 18:49:52 21.2 15 24.4
003B77A1 2019-03-27 18:18:27 21.3 15 24.3
003B77A1 2019-03-27 17:47:01 21.3 16 24.3
003B77A1 2019-03-27 17:15:36 21.4 16 24.3
003B77A1 2019-03-27 16:44:12 21.4 16 24.3
003B77A1 2019-03-27 16:12:48 21.4 16 24.3
003B77A1 2019-03-27 15:41:23 21.3 16 24.2
003B77A1 2019-03-27 15:09:58 21.3 16 24.2
003B77A1 2019-03-27 14:38:34 21.2 16 24.1
003B77A1 2019-03-27 14:07:12 21.1 16 24.1
003B77A1 2019-03-27 13:35:43 21 16 24.2
003B77A1 2019-03-27 13:04:18 21 16 24.1
003B77A1 2019-03-27 12:32:54 20.9 15 23.4
003B77A1 2019-03-27 12:01:28 20.9 15 22.6
003B77A1 2019-03-27 11:30:04 20.9 15 21.6
003B77A1 2019-03-27 10:58:38 20.8 15 20.2
003B77A1 2019-03-27 10:27:13 20.8 15 19.9
003B77A1 2019-03-27 09:55:49 20.8 15 17.8
003B77A1 2019-03-27 09:24:23 20.7 14 18
003B77A1 2019-03-27 08:53:01 20.7 14 17.5
003B77A1 2019-03-27 08:21:03 20.7 14 17.8
003B77A1 2019-03-27 07:49:37 20.7 14 17.5
003B77A1 2019-03-27 07:18:12 20.7 14 17.7
003B77A1 2019-03-27 06:46:45 20.7 14 17.7
003B77A1 2019-03-27 06:15:19 20.7 14 17.7
003B77A1 2019-03-27 05:43:54 20.7 14 17.7
003B77A1 2019-03-27 05:12:28 20.7 14 17.7
003B77A1 2019-03-27 04:41:02 20.7 14 19.9
003B77A1 2019-03-27 04:09:35 20.7 14 19.8
003B77A1 2019-03-27 03:38:08 20.8 14 19.8
003B77A1 2019-03-27 03:06:42 20.8 14 19.7
003B77A1 2019-03-27 02:35:15 20.8 14 19.9
003B77A1 2019-03-27 02:03:48 20.8 14 19.8
003B77A1 2019-03-27 01:32:23 20.9 14 19.8
003B77A1 2019-03-27 01:00:56 20.9 14 19.8
003B77A1 2019-03-27 00:29:31 20.9 14 19.8
003B77A1 2019-03-26 23:58:04 21 14 19.7
003B77A1 2019-03-26 23:26:37 21 14 19.7
003B77A1 2019-03-26 22:55:11 21 14 19.8
003B77A1 2019-03-26 22:23:45 21.1 13 19.8
003B77A1 2019-03-26 21:52:19 21.1 13 19.8
003B77A1 2019-03-26 21:20:53 21.2 13 19.9
003B77A1 2019-03-26 20:49:27 21.2 13 20.1
003B77A1 2019-03-26 20:18:00 21.2 13 20.3
003B77A1 2019-03-26 19:46:34 21.2 13 20.3
003B77A1 2019-03-26 19:15:09 21.2 13 21.6
003B77A1 2019-03-26 18:43:45 21.2 13 21.8
003B77A1 2019-03-26 18:12:20 21.3 13 21.9
003B77A1 2019-03-26 17:40:53 21.4 13 22
003B77A1 2019-03-26 17:09:27 21.4 13 22.1
003B77A1 2019-03-26 16:38:02 21.4 14 22.3
003B77A1 2019-03-26 16:06:38 21.4 14 22.5
003B77A1 2019-03-26 15:35:11 21.3 14 22.5
003B77A1 2019-03-26 15:03:46 21.2 14 22.5
003B77A1 2019-03-26 14:32:20 21.1 15 22.6
003B77A1 2019-03-26 14:00:53 20.9 15 22.8
003B77A1 2019-03-26 13:29:26 20.9 15 22.7
003B77A1 2019-03-26 12:58:00 20.8 15 22.7
003B77A1 2019-03-26 12:26:34 20.7 15 22.9
003B77A1 2019-03-26 11:55:08 20.7 16 22.9
003B77A1 2019-03-26 11:23:43 20.7 16 22.9
003B77A1 2019-03-26 10:52:18 20.7 17 22.9
003B77A1 2019-03-26 10:20:53 20.7 17 23.1
003B77A1 2019-03-26 09:49:32 20.7 18 23.1
003B77A1 2019-03-26 09:18:02 20.7 18 23.2
003B77A1 2019-03-26 08:46:36 20.7 19 23.2
003B77A1 2019-03-26 08:15:10 20.7 19 23.3
003B77A1 2019-03-26 07:43:44 20.7 19 24
003B77A1 2019-03-26 07:12:18 20.7 20 23.8
003B77A1 2019-03-26 06:40:52 20.7 20 23.8
003B77A1 2019-03-26 06:08:44 20.7 20 23.1
003B77A1 2019-03-26 05:37:18 20.7 20 22.9
003B77A1 2019-03-26 05:05:52 20.7 20 22.9
003B77A1 2019-03-26 04:34:24 20.7 20 22.9
003B77A1 2019-03-26 04:02:57 20.7 20 22.7
003B77A1 2019-03-26 03:31:30 20.7 20 22.5
003B77A1 2019-03-26 03:00:02 20.7 20 22.6
003B77A1 2019-03-26 02:28:35 20.7 20 21.6
003B77A1 2019-03-26 01:57:09 20.7 20 21.6
003B77A1 2019-03-26 01:25:41 20.7 20 21.6
003B77A1 2019-03-26 00:54:15 20.8 20 21.3
003B77A1 2019-03-26 00:22:46 20.7 20 21.2
003B77A1 2019-03-25 23:51:20 20.8 20 21.2
003B77A1 2019-03-25 23:19:53 20.8 20 20.9
003B77A1 2019-03-25 22:48:25 20.9 20 20.9
003B77A1 2019-03-25 22:16:59 20.9 20 21
003B77A1 2019-03-25 21:45:32 20.9 20 21.1
003B77A1 2019-03-25 21:14:05 20.9 20 20.9
003B77A1 2019-03-25 20:42:39 20.9 20 20.8
003B77A1 2019-03-25 20:11:13 20.9 20 20.7
003B77A1 2019-03-25 19:39:47 21 19 20.7
003B77A1 2019-03-25 19:08:20 21 19 20.5
003B77A1 2019-03-25 18:36:54 21 19 18.9
003B77A1 2019-03-25 18:05:28 21 20 19.1
003B77A1 2019-03-25 17:34:02 21.1 21 18.8
003B77A1 2019-03-25 17:02:37 21.1 22 18.8
003B77A1 2019-03-25 16:31:11 21.1 23 19
003B77A1 2019-03-25 15:59:44 21.1 23 18.9
003B77A1 2019-03-25 15:28:19 21.1 23 19
003B77A1 2019-03-25 14:56:52 21.1 24 19.2
003B77A1 2019-03-25 14:25:27 21.1 24 19.3
003B77A1 2019-03-25 13:54:01 21.1 24 18.9
003B77A1 2019-03-25 13:22:35 21 24 18.7
003B77A1 2019-03-25 12:51:11 20.9 23 18.9
003B77A1 2019-03-25 12:19:45 20.8 23 18.9
003B77A1 2019-03-25 11:48:21 20.8 24 18.9
003B77A1 2019-03-25 11:16:56 20.7 24 19
003B77A1 2019-03-25 10:45:30 20.7 24 19.3
003B77A1 2019-03-25 10:14:05 20.6 24 19.5
003B77A1 2019-03-25 09:42:38 20.4 23 19.5
003B77A1 2019-03-25 09:11:11 20.4 23 19.2
003B77A1 2019-03-25 08:39:45 20.3 23 19.2
003B77A1 2019-03-25 08:08:18 20.3 23 19.3
003B77A1 2019-03-25 07:36:52 20.3 23 19.5
003B77A1 2019-03-25 07:05:25 20.3 23 19.6
003B77A1 2019-03-25 06:33:59 20.3 23 19.7
003B77A1 2019-03-25 06:02:31 20.3 23 19.8
003B77A1 2019-03-25 05:31:04 20.4 23 20
003B77A1 2019-03-25 04:59:38 20.3 23 19.9
003B77A1 2019-03-25 04:28:11 20.4 23 20.1
003B77A1 2019-03-25 03:56:13 20.4 23 20
003B77A1 2019-03-25 03:24:47 20.4 23 20.4
003B77A1 2019-03-25 02:53:22 20.4 23 20.4
003B77A1 2019-03-25 02:21:57 20.4 23 20.4
003B77A1 2019-03-25 01:50:30 20.5 23 20.4
003B77A1 2019-03-25 01:19:03 20.5 23 20.5
003B77A1 2019-03-25 00:47:38 20.5 23 20.4
003B77A1 2019-03-25 00:16:12 20.6 23 20.4
003B77A1 2019-03-24 23:44:45 20.6 23 20.6
003B77A1 2019-03-24 23:13:20 20.7 23 20.8
003B77A1 2019-03-24 22:41:55 20.7 23 20.8
003B77A1 2019-03-24 22:10:31 20.8 23 20.8
003B77A1 2019-03-24 21:39:06 20.8 23 20.9
003B77A1 2019-03-24 21:07:39 20.9 23 20.9
003B77A1 2019-03-24 20:36:13 20.9 23 21
003B77A1 2019-03-24 20:04:47 20.9 23 21
003B77A1 2019-03-24 19:33:21 21 23 21
003B77A1 2019-03-24 19:01:56 21 23 20.9
003B77A1 2019-03-24 18:30:30 21 23 20.9
003B77A1 2019-03-24 17:59:04 21 23 20.7
003B77A1 2019-03-24 17:27:37 20.9 23 20.7
003B77A1 2019-03-24 16:56:13 20.9 23 20.7
003B77A1 2019-03-24 16:24:47 20.9 23 20.8
003B77A1 2019-03-24 15:53:21 20.7 24 20.8
003B77A1 2019-03-24 15:21:56 20.6 24 20.9
003B77A1 2019-03-24 14:50:32 20.5 24 20.9
003B77A1 2019-03-24 14:19:07 20.4 24 20.7
003B77A1 2019-03-24 13:47:41 20.3 23 20.6
003B77A1 2019-03-24 13:16:17 20.3 23 20.6
003B77A1 2019-03-24 12:44:52 20.3 23 20.6
003B77A1 2019-03-24 12:13:27 20.3 23 20.5
003B77A1 2019-03-24 11:42:02 20.3 23 20.6
003B77A1 2019-03-24 11:10:37 20.3 23 20.4
003B77A1 2019-03-24 10:39:12 20.3 23 20.3
003B77A1 2019-03-24 10:07:46 20.3 23 20.2
003B77A1 2019-03-24 09:36:21 20.3 23 20.2
003B77A1 2019-03-24 09:04:56 20.3 23 20.2
003B77A1 2019-03-24 08:33:31 20.3 23 20.1
003B77A1 2019-03-24 08:02:06 20.3 23 20.2
003B77A1 2019-03-24 07:30:41 20.3 23 20.1
003B77A1 2019-03-24 06:59:16 20.3 23 20.2
003B77A1 2019-03-24 06:27:50 20.3 23 20.3
003B77A1 2019-03-24 05:56:24 20.3 23 20.3
003B77A1 2019-03-24 05:24:59 20.3 23 20.3
003B77A1 2019-03-24 04:53:35 20.3 23 20.4
003B77A1 2019-03-24 04:22:10 20.3 23 20.4
003B77A1 2019-03-24 03:50:46 20.3 23 20.5
003B77A1 2019-03-24 03:19:20 20.3 23 20.2
003B77A1 2019-03-24 02:47:54 20.3 23 20
003B77A1 2019-03-24 02:16:28 20.3 23 20.3
003B77A1 2019-03-24 01:44:27 20.3 23 20.4
003B77A1 2019-03-24 01:13:00 20.3 23 20.4
003B77A1 2019-03-24 00:41:33 20.3 23 20.3
003B77A1 2019-03-24 00:10:06 20.4 23 20.3
003B77A1 2019-03-23 23:38:39 20.4 23 20.4
003B77A1 2019-03-23 23:07:13 20.4 23 20.6
003B77A1 2019-03-23 22:35:47 20.4 23 20.7
003B77A1 2019-03-23 22:04:20 20.4 22 20.8
003B77A1 2019-03-23 21:32:53 20.4 22 20.7
003B77A1 2019-03-23 21:01:27 20.4 22 20.7
003B77A1 2019-03-23 20:30:03 20.4 22 20.5
003B77A1 2019-03-23 19:58:37 20.4 22 20.5
003B77A1 2019-03-23 19:27:11 20.4 22 20.4
003B77A1 2019-03-23 18:55:46 20.4 22 20.5
003B77A1 2019-03-23 18:24:19 20.4 22 21.7
003B77A1 2019-03-23 17:52:53 20.4 22 21.5
003B77A1 2019-03-23 17:21:27 20.4 21 21.5
003B77A1 2019-03-23 16:50:02 20.4 21 21.4
003B77A1 2019-03-23 16:18:36 20.4 21 21.3
003B77A1 2019-03-23 15:47:11 20.4 21 21.3
003B77A1 2019-03-23 15:15:45 20.4 21 21.1
003B77A1 2019-03-23 14:44:20 20.4 21 21.1
003B77A1 2019-03-23 14:12:55 20.4 21 21.1
003B77A1 2019-03-23 13:41:30 20.5 21 20.7
003B77A1 2019-03-23 13:10:05 20.4 21 20.7
003B77A1 2019-03-23 12:38:40 20.5 21 21.8
003B77A1 2019-03-23 12:07:14 20.5 21 21.8
003B77A1 2019-03-23 11:35:48 20.4 20 21.8
003B77A1 2019-03-23 11:04:22 20.5 20 22.8
003B77A1 2019-03-23 10:32:55 20.5 20 22.7
003B77A1 2019-03-23 10:01:30 20.5 20 22.7
003B77A1 2019-03-23 09:30:03 20.5 20 22.8
003B77A1 2019-03-23 08:58:36 20.5 20 22.8
003B77A1 2019-03-23 08:27:10 20.5 20 22.8
003B77A1 2019-03-23 07:55:46 20.5 20 22.8
003B77A1 2019-03-23 07:24:19 20.5 20 23.6
003B77A1 2019-03-23 06:52:52 20.6 20 23.5
003B77A1 2019-03-23 06:21:25 20.5 20 23.5
003B77A1 2019-03-23 05:49:58 20.6 19 23.5
003B77A1 2019-03-23 05:18:31 20.6 19 22.8
003B77A1 2019-03-23 04:47:04 20.6 19 22.8
003B77A1 2019-03-23 04:15:39 20.6 19 23
003B77A1 2019-03-23 03:44:14 20.7 19 22.9
003B77A1 2019-03-23 03:12:47 20.7 19 23
003B77A1 2019-03-23 02:41:21 20.7 19 22.9
003B77A1 2019-03-23 02:09:56 20.8 19 22.9
003B77A1 2019-03-23 01:38:29 20.8 19 23
003B77A1 2019-03-23 01:07:02 20.9 18 23
003B77A1 2019-03-23 00:35:38 20.9 18 23.1
003B77A1 2019-03-23 00:04:13 21 18 23.1
003B77A1 2019-03-22 23:32:06 21.1 18 23.1
003B77A1 2019-03-22 23:00:41 21.1 18 23.1
003B77A1 2019-03-22 22:29:16 21.2 18 23.2
003B77A1 2019-03-22 21:57:50 21.3 18 22.4
003B77A1 2019-03-22 21:26:25 21.3 17 22.4
003B77A1 2019-03-22 20:54:59 21.4 17 22.2
003B77A1 2019-03-22 20:23:33 21.4 17 22.1
003B77A1 2019-03-22 19:52:08 21.4 17 22
003B77A1 2019-03-22 19:20:43 21.4 16 21.9
003B77A1 2019-03-22 18:49:18 21.3 16 21.9
003B77A1 2019-03-22 18:17:53 21.3 16 20.7
003B77A1 2019-03-22 17:46:28 21.3 15 20.7
003B77A1 2019-03-22 17:15:02 21.3 15 20.7
003B77A1 2019-03-22 16:43:37 21.2 15 20.7
003B77A1 2019-03-22 16:12:11 21.1 16 20.4
003B77A1 2019-03-22 15:40:45 21.1 16 20.4
003B77A1 2019-03-22 15:09:19 21 16 20.3
003B77A1 2019-03-22 14:37:51 20.8 17 20.3
003B77A1 2019-03-22 14:06:25 20.8 17 20.3
003B77A1 2019-03-22 13:35:01 20.7 18 21.6
003B77A1 2019-03-22 13:03:35 20.7 18 21.5
003B77A1 2019-03-22 12:32:10 20.7 19 21.4
003B77A1 2019-03-22 12:00:44 20.7 19 21.6
003B77A1 2019-03-22 11:29:17 20.7 20 21.5
003B77A1 2019-03-22 10:57:50 20.7 20 21.6
003B77A1 2019-03-22 10:26:24 20.7 21 20.4
003B77A1 2019-03-22 09:54:58 20.7 21 20.4
003B77A1 2019-03-22 09:23:31 20.7 22 20.3
003B77A1 2019-03-22 08:52:06 20.7 22 20.3
003B77A1 2019-03-22 08:20:41 20.6 23 20.3
003B77A1 2019-03-22 07:49:17 20.7 23 20.3
003B77A1 2019-03-22 07:17:53 20.6 24 20.3
003B77A1 2019-03-22 06:46:28 20.7 24 20.3
003B77A1 2019-03-22 06:15:03 20.7 24 21.7
003B77A1 2019-03-22 05:43:37 20.7 24 21.7
003B77A1 2019-03-22 05:12:10 20.7 25 21.7
003B77A1 2019-03-22 04:40:45 20.7 25 21.7
003B77A1 2019-03-22 04:09:20 20.7 25 21.6
003B77A1 2019-03-22 03:37:54 20.7 26 21.6
003B77A1 2019-03-22 03:06:29 20.7 26 21.7
003B77A1 2019-03-22 02:35:04 20.7 27 21.6
003B77A1 2019-03-22 02:03:37 20.7 27 21.6
003B77A1 2019-03-22 01:32:12 20.8 27 21.7
003B77A1 2019-03-22 01:00:47 20.8 27 21.8
003B77A1 2019-03-22 00:29:22 20.8 28 20.6
003B77A1 2019-03-21 23:57:57 20.9 28 20.6
003B77A1 2019-03-21 23:26:33 20.9 28 20.5
003B77A1 2019-03-21 22:55:07 20.9 28 20.2
003B77A1 2019-03-21 22:23:42 20.9 28 20.4
003B77A1 2019-03-21 21:52:17 20.9 28 20.2
003B77A1 2019-03-21 21:20:19 21 28 21.4
003B77A1 2019-03-21 20:48:52 21 28 21.4
003B77A1 2019-03-21 20:17:27 21 28 21.4
003B77A1 2019-03-21 19:46:02 21.1 28 21.4
003B77A1 2019-03-21 19:14:37 21.1 28 21.5
003B77A1 2019-03-21 18:43:12 21.1 28 21.5
003B77A1 2019-03-21 18:11:47 21.2 27 21.5
003B77A1 2019-03-21 17:40:23 21.2 27 20.2
003B77A1 2019-03-21 17:08:59 21.3 27 20.3
003B77A1 2019-03-21 16:37:34 21.3 27 21.6
003B77A1 2019-03-21 16:06:09 21.3 28 21.6
003B77A1 2019-03-21 15:34:45 21.4 28 21.6
003B77A1 2019-03-21 15:03:22 21.3 28 21.7
003B77A1 2019-03-21 14:31:58 21.2 27 21.6
003B77A1 2019-03-21 14:00:35 21.1 27 22.7
003B77A1 2019-03-21 13:29:11 21 26 22.7
003B77A1 2019-03-21 12:57:47 21 26 22.7
003B77A1 2019-03-21 12:26:23 20.9 25 22.6
003B77A1 2019-03-21 11:54:58 20.9 25 22.6
003B77A1 2019-03-21 11:23:33 20.8 25 22.6
003B77A1 2019-03-21 10:52:08 20.8 25 22.6
003B77A1 2019-03-21 10:20:43 20.7 25 22.6
003B77A1 2019-03-21 09:49:17 20.7 25 22.6
003B77A1 2019-03-21 09:17:53 20.7 25 22.6
003B77A1 2019-03-21 08:46:28 20.6 24 21.7
003B77A1 2019-03-21 08:15:02 20.6 25 21.6
003B77A1 2019-03-21 07:43:36 20.6 25 21.6
003B77A1 2019-03-21 07:12:10 20.6 25 21.7
003B77A1 2019-03-21 06:40:43 20.7 25 21.9
003B77A1 2019-03-21 06:09:18 20.6 25 21.8
003B77A1 2019-03-21 05:37:51 20.7 25 21.9
003B77A1 2019-03-21 05:06:25 20.6 25 21.9
003B77A1 2019-03-21 04:35:00 20.6 25 21.9
003B77A1 2019-03-21 04:03:34 20.6 25 21.8
003B77A1 2019-03-21 03:32:08 20.6 25 20.6
003B77A1 2019-03-21 03:00:43 20.7 25 20.7
003B77A1 2019-03-21 02:29:19 20.6 26 20.8
003B77A1 2019-03-21 01:57:55 20.7 26 20.7
003B77A1 2019-03-21 01:26:33 20.7 26 20.7
003B77A1 2019-03-21 00:55:07 20.7 26 19
003B77A1 2019-03-21 00:23:43 20.7 26 18.8
003B77A1 2019-03-20 23:52:20 20.7 26 18.9
003B77A1 2019-03-20 23:20:57 20.7 26 19
003B77A1 2019-03-20 22:49:32 20.7 26 19
003B77A1 2019-03-20 22:18:07 20.7 26 19.3
003B77A1 2019-03-20 21:46:43 20.7 26 19.5
003B77A1 2019-03-20 21:15:18 20.8 26 19.6
003B77A1 2019-03-20 20:43:52 20.8 26 19.6
003B77A1 2019-03-20 20:12:26 20.8 26 19.9
003B77A1 2019-03-20 19:41:01 20.8 26 20
003B77A1 2019-03-20 19:09:05 20.9 26 21.5
003B77A1 2019-03-20 18:37:39 20.9 25 21.4
003B77A1 2019-03-20 18:06:16 21 25 21.3
003B77A1 2019-03-20 17:34:52 21 25 21.5
003B77A1 2019-03-20 17:03:28 21.1 25 21.6
003B77A1 2019-03-20 16:32:03 21.1 25 21.8
003B77A1 2019-03-20 16:00:38 21.2 26 21.8
003B77A1 2019-03-20 15:29:13 21.2 26 21.9
003B77A1 2019-03-20 14:57:48 21.1 25 21.8
003B77A1 2019-03-20 14:26:24 21.1 25 21.8
003B77A1 2019-03-20 13:55:00 21 25 21.7
003B77A1 2019-03-20 13:23:34 21 25 21.8
003B77A1 2019-03-20 12:52:09 21 25 21.8
003B77A1 2019-03-20 12:20:45 20.9 25 21.9
003B77A1 2019-03-20 11:49:20 20.9 25 22.1
003B77A1 2019-03-20 11:17:56 20.9 25 22.1
003B77A1 2019-03-20 10:46:31 20.8 25 22
003B77A1 2019-03-20 10:15:07 20.7 24 22
003B77A1 2019-03-20 09:43:42 20.6 24 21.9
003B77A1 2019-03-20 09:12:17 20.6 24 22
003B77A1 2019-03-20 08:40:52 20.6 25 21.8
003B77A1 2019-03-20 08:09:27 20.6 25 21.8
003B77A1 2019-03-20 07:38:02 20.6 26 21.7
003B77A1 2019-03-20 07:06:37 20.6 26 21.6
003B77A1 2019-03-20 06:35:12 20.6 26 21.5
003B77A1 2019-03-20 06:03:47 20.6 26 20.1
003B77A1 2019-03-20 05:32:22 20.6 26 20.2
003B77A1 2019-03-20 05:00:56 20.6 26 20.3
003B77A1 2019-03-20 04:29:31 20.6 27 20.2
003B77A1 2019-03-20 03:58:05 20.6 27 19.8
003B77A1 2019-03-20 03:26:40 20.6 27 19.7
003B77A1 2019-03-20 02:55:15 20.6 27 19.9
003B77A1 2019-03-20 02:23:48 20.6 27 19.9
003B77A1 2019-03-20 01:52:23 20.7 27 19.9
003B77A1 2019-03-20 01:20:57 20.7 27 20.2
003B77A1 2019-03-20 00:49:32 20.7 28 20.1
003B77A1 2019-03-20 00:18:06 20.7 28 20.2
003B77A1 2019-03-19 23:46:42 20.7 28 20.3
003B77A1 2019-03-19 23:15:17 20.7 28 20.3
003B77A1 2019-03-19 22:43:51 20.8 28 20.3
003B77A1 2019-03-19 22:12:27 20.8 28 20.3
003B77A1 2019-03-19 21:41:00 20.8 28 20.2
003B77A1 2019-03-19 21:09:35 20.9 28 20.2
003B77A1 2019-03-19 20:38:08 20.9 28 20.1
003B77A1 2019-03-19 20:06:40 20.9 29 19.9
003B77A1 2019-03-19 19:35:13 20.9 29 20
003B77A1 2019-03-19 19:03:47 21 29 20
003B77A1 2019-03-19 18:32:22 21.1 29 19.9
003B77A1 2019-03-19 18:00:56 21.2 29 21.4
003B77A1 2019-03-19 17:29:30 21.3 30 21.4
003B77A1 2019-03-19 16:57:23 21.3 30 21.5
003B77A1 2019-03-19 16:25:57 21.3 30 21.4
003B77A1 2019-03-19 15:54:31 21.2 29 21.5
003B77A1 2019-03-19 15:23:05 21.2 29 21.4
003B77A1 2019-03-19 14:51:38 21.2 29 21.6
003B77A1 2019-03-19 14:20:12 21.2 29 21.6
003B77A1 2019-03-19 13:48:44 21.2 29 21.6
003B77A1 2019-03-19 13:17:17 21.1 29 21.5
003B77A1 2019-03-19 12:45:51 21.1 29 22.4
003B77A1 2019-03-19 12:14:25 21 29 22.5
003B77A1 2019-03-19 11:42:58 20.9 29 22.4
003B77A1 2019-03-19 11:11:33 20.9 29 22.4
003B77A1 2019-03-19 10:40:07 20.8 28 22.3
003B77A1 2019-03-19 10:08:40 20.7 28 22.2
003B77A1 2019-03-19 09:37:13 20.7 27 22.1
003B77A1 2019-03-19 09:05:47 20.6 27 22.2
003B77A1 2019-03-19 08:34:20 20.6 27 22.2
003B77A1 2019-03-19 08:02:54 20.6 27 22.1
003B77A1 2019-03-19 07:31:29 20.6 27 22.2
003B77A1 2019-03-19 07:00:03 20.6 27 22.1
003B77A1 2019-03-19 06:28:38 20.6 27 22.2
003B77A1 2019-03-19 05:57:12 20.6 27 22
003B77A1 2019-03-19 05:25:47 20.6 27 20.9
003B77A1 2019-03-19 04:54:21 20.6 27 21.1
003B77A1 2019-03-19 04:22:55 20.6 27 21.2
003B77A1 2019-03-19 03:51:30 20.6 27 21.3
003B77A1 2019-03-19 03:20:05 20.6 27 21.3
003B77A1 2019-03-19 02:48:39 20.6 27 21.3
003B77A1 2019-03-19 02:17:13 20.6 27 21.5
003B77A1 2019-03-19 01:45:48 20.6 27 21.5
003B77A1 2019-03-19 01:14:20 20.6 27 21.5
003B77A1 2019-03-19 00:42:53 20.6 27 21.4
003B77A1 2019-03-19 00:11:27 20.6 27 21.4
003B77A1 2019-03-18 23:40:00 20.7 27 20
003B77A1 2019-03-18 23:08:33 20.7 27 20.2
003B77A1 2019-03-18 22:37:05 20.7 27 20.3
003B77A1 2019-03-18 22:05:38 20.7 27 20.3
003B77A1 2019-03-18 21:34:12 20.7 27 20.3
003B77A1 2019-03-18 21:02:43 20.7 27 20.3
003B77A1 2019-03-18 20:31:14 20.7 27 20.4
003B77A1 2019-03-18 19:59:48 20.8 27 20.5
003B77A1 2019-03-18 19:28:21 20.8 26 20.7
003B77A1 2019-03-18 18:56:54 20.8 26 20.9
003B77A1 2019-03-18 18:25:27 20.9 26 21
003B77A1 2019-03-18 17:54:01 20.9 27 21.2
003B77A1 2019-03-18 17:22:38 21 27 21.3
003B77A1 2019-03-18 16:51:11 21 27 21.4
003B77A1 2019-03-18 16:19:46 21 27 21.5
003B77A1 2019-03-18 15:48:19 20.9 27 21.3
003B77A1 2019-03-18 15:16:53 20.9 27 21.2
003B77A1 2019-03-18 14:44:45 20.9 27 21.4
003B77A1 2019-03-18 14:13:19 20.9 27 21.4
003B77A1 2019-03-18 13:41:52 20.8 27 21.2
003B77A1 2019-03-18 13:10:27 20.8 27 21.1
003B77A1 2019-03-18 12:39:01 20.8 27 21.3
003B77A1 2019-03-18 12:07:34 20.8 27 21.1
003B77A1 2019-03-18 11:36:08 20.8 27 21.2
003B77A1 2019-03-18 11:04:41 20.8 27 21.2
003B77A1 2019-03-18 10:33:15 20.7 27 21.2
003B77A1 2019-03-18 10:01:48 20.7 27 21.1
003B77A1 2019-03-18 09:30:24 20.7 27 21
003B77A1 2019-03-18 08:58:58 20.6 27 21.1
003B77A1 2019-03-18 08:27:33 20.6 27 21.2
003B77A1 2019-03-18 07:56:08 20.6 27 21.2
003B77A1 2019-03-18 07:24:42 20.6 27 21.1
003B77A1 2019-03-18 06:53:16 20.6 27 21.1
003B77A1 2019-03-18 06:21:50 20.6 27 20.8
003B77A1 2019-03-18 05:50:23 20.6 27 20.7
003B77A1 2019-03-18 05:18:56 20.6 27 20.6
003B77A1 2019-03-18 04:47:29 20.6 27 20.4
003B77A1 2019-03-18 04:16:04 20.6 27 20.4
003B77A1 2019-03-18 03:44:39 20.6 27 20.4
003B77A1 2019-03-18 03:13:13 20.6 27 20.2
003B77A1 2019-03-18 02:41:47 20.6 27 20.2
003B77A1 2019-03-18 02:10:22 20.6 27 20.2
003B77A1 2019-03-18 01:38:58 20.6 26 20.1
003B77A1 2019-03-18 01:07:33 20.6 26 20.1
003B77A1 2019-03-18 00:36:08 20.6 26 20
003B77A1 2019-03-18 00:04:43 20.6 26 19.6
003B77A1 2019-03-17 23:33:18 20.6 26 19.7
003B77A1 2019-03-17 23:01:54 20.6 26 19.6
003B77A1 2019-03-17 22:30:29 20.6 26 19.6
003B77A1 2019-03-17 21:59:04 20.6 26 19.6
003B77A1 2019-03-17 21:27:40 20.6 26 19.6
003B77A1 2019-03-17 20:56:15 20.6 26 19.6
003B77A1 2019-03-17 20:24:49 20.6 26 19.7
003B77A1 2019-03-17 19:53:23 20.6 26 19.7
003B77A1 2019-03-17 19:21:58 20.6 26 19.7
003B77A1 2019-03-17 18:50:31 20.6 26 19.9
003B77A1 2019-03-17 18:19:02 20.6 26 19.9
003B77A1 2019-03-17 17:47:35 20.6 26 20
003B77A1 2019-03-17 17:16:09 20.7 26 20.1
003B77A1 2019-03-17 16:44:43 20.6 26 20.2
003B77A1 2019-03-17 16:13:16 20.7 26 20.3
003B77A1 2019-03-17 15:41:48 20.7 26 20.4
003B77A1 2019-03-17 15:10:21 20.7 26 20.7
003B77A1 2019-03-17 14:38:54 20.7 26 20.8
003B77A1 2019-03-17 14:07:27 20.7 26 20.9
003B77A1 2019-03-17 13:36:00 20.7 26 20.9
003B77A1 2019-03-17 13:04:33 20.7 26 21
003B77A1 2019-03-17 12:32:32 20.6 26 20.9
003B77A1 2019-03-17 12:01:05 20.6 26 21
003B77A1 2019-03-17 11:29:37 20.7 26 21.2
003B77A1 2019-03-17 10:58:12 20.6 26 21.3
003B77A1 2019-03-17 10:26:46 20.6 26 21.3
003B77A1 2019-03-17 09:55:19 20.6 26 21.4
003B77A1 2019-03-17 09:23:53 20.6 26 21.6
003B77A1 2019-03-17 08:52:27 20.6 26 21.4
003B77A1 2019-03-17 08:21:03 20.6 26 21.5
003B77A1 2019-03-17 07:49:34 20.6 26 21.3
003B77A1 2019-03-17 07:18:08 20.6 26 21.4
003B77A1 2019-03-17 06:46:42 20.6 26 21.4
003B77A1 2019-03-17 06:15:15 20.6 27 21.3
003B77A1 2019-03-17 05:43:50 20.6 27 21.3
003B77A1 2019-03-17 05:12:25 20.6 27 21.5
003B77A1 2019-03-17 04:40:58 20.6 27 21.4
003B77A1 2019-03-17 04:09:32 20.6 27 21.4
003B77A1 2019-03-17 03:38:07 20.6 27 21.3
003B77A1 2019-03-17 03:06:42 20.6 27 21.3
003B77A1 2019-03-17 02:35:18 20.7 27 22.1
003B77A1 2019-03-17 02:03:51 20.6 27 22.1
003B77A1 2019-03-17 01:32:28 20.6 27 22
003B77A1 2019-03-17 01:01:03 20.6 27 22.2
003B77A1 2019-03-17 00:29:40 20.6 27 22.1
003B77A1 2019-03-16 23:58:16 20.6 27 22.1
003B77A1 2019-03-16 23:26:51 20.6 27 22.2
003B77A1 2019-03-16 22:55:27 20.6 27 22.1
003B77A1 2019-03-16 22:24:03 20.6 27 22
003B77A1 2019-03-16 21:52:39 20.6 27 22
003B77A1 2019-03-16 21:21:15 20.6 26 21.9
003B77A1 2019-03-16 20:49:51 20.6 26 22
003B77A1 2019-03-16 20:18:28 20.6 26 21.9
003B77A1 2019-03-16 19:47:06 20.7 26 22
003B77A1 2019-03-16 19:15:43 20.6 26 22
003B77A1 2019-03-16 18:44:20 20.7 26 22.1
003B77A1 2019-03-16 18:12:55 20.6 26 22.1
003B77A1 2019-03-16 17:41:31 20.7 26 22.1
003B77A1 2019-03-16 17:10:07 20.7 26 22.1
003B77A1 2019-03-16 16:38:43 20.7 26 22.1
003B77A1 2019-03-16 16:07:20 20.7 26 22.1
003B77A1 2019-03-16 15:35:56 20.7 26 22.3
003B77A1 2019-03-16 15:04:32 20.7 26 22.2
003B77A1 2019-03-16 14:33:08 20.7 26 22.2
003B77A1 2019-03-16 14:01:46 20.7 26 22.2
003B77A1 2019-03-16 13:30:23 20.7 26 21.2
003B77A1 2019-03-16 12:58:59 20.7 26 21.1
003B77A1 2019-03-16 12:27:36 20.6 26 21.2
003B77A1 2019-03-16 11:56:12 20.7 26 21
003B77A1 2019-03-16 11:24:50 20.6 26 21
003B77A1 2019-03-16 10:53:27 20.7 26 21
003B77A1 2019-03-16 10:21:31 20.7 26 21
003B77A1 2019-03-16 09:50:06 20.7 26 21
003B77A1 2019-03-16 09:18:42 20.7 26 21.1
003B77A1 2019-03-16 08:47:18 20.7 26 21.5
003B77A1 2019-03-16 08:15:54 20.7 26 21.5
003B77A1 2019-03-16 07:44:29 20.7 26 21.5
003B77A1 2019-03-16 07:13:03 20.7 26 21.5
003B77A1 2019-03-16 06:41:40 20.7 26 21.5
003B77A1 2019-03-16 06:10:15 20.7 26 21.5
003B77A1 2019-03-16 05:38:52 20.7 26 21.4
003B77A1 2019-03-16 05:07:27 20.7 26 21.4
003B77A1 2019-03-16 04:36:04 20.7 26 21.3
003B77A1 2019-03-16 04:04:41 20.7 26 21.2
003B77A1 2019-03-16 03:33:18 20.7 26 21.1
003B77A1 2019-03-16 03:01:55 20.7 26 20.8
003B77A1 2019-03-16 02:30:32 20.7 26 20.6
003B77A1 2019-03-16 01:59:08 20.7 26 20.7
003B77A1 2019-03-16 01:27:44 20.7 26 20.6
003B77A1 2019-03-16 00:56:20 20.7 27 20.4
003B77A1 2019-03-16 00:24:55 20.7 27 20.5
003B77A1 2019-03-15 23:53:30 20.7 27 20.3
003B77A1 2019-03-15 23:22:05 20.7 27 20.3
003B77A1 2019-03-15 22:50:40 20.7 27 20.1
003B77A1 2019-03-15 22:19:17 20.7 27 20.1
003B77A1 2019-03-15 21:47:53 20.8 27 20.2
003B77A1 2019-03-15 21:16:28 20.8 27 20.1
003B77A1 2019-03-15 20:45:05 20.8 27 20.4
003B77A1 2019-03-15 20:13:41 20.8 27 20.4
003B77A1 2019-03-15 19:42:18 20.8 27 20
003B77A1 2019-03-15 19:10:55 20.8 26 20
003B77A1 2019-03-15 18:39:31 20.8 26 20.3
003B77A1 2019-03-15 18:08:07 20.8 26 20.2
003B77A1 2019-03-15 17:36:43 20.8 26 20.3
003B77A1 2019-03-15 17:05:18 20.9 26 20.5
003B77A1 2019-03-15 16:33:53 20.9 26 20.5
003B77A1 2019-03-15 16:02:28 20.9 26 20.6
003B77A1 2019-03-15 15:31:05 20.8 26 20.7
003B77A1 2019-03-15 14:59:41 20.9 26 20.7
003B77A1 2019-03-15 14:28:16 20.9 26 20.9
003B77A1 2019-03-15 13:56:50 20.9 26 21.1
003B77A1 2019-03-15 13:25:26 20.8 26 21.2
003B77A1 2019-03-15 12:54:02 20.9 26 21.2
003B77A1 2019-03-15 12:22:37 20.9 26 21.4
003B77A1 2019-03-15 11:51:14 20.8 26 21.6
003B77A1 2019-03-15 11:19:50 20.8 26 21.8
003B77A1 2019-03-15 10:48:25 20.7 26 22
003B77A1 2019-03-15 10:17:01 20.8 26 22.1
003B77A1 2019-03-15 09:45:37 20.7 25 22.3
003B77A1 2019-03-15 09:14:13 20.7 25 22.3
003B77A1 2019-03-15 08:42:48 20.7 25 22.3
003B77A1 2019-03-15 08:10:50 20.6 25 22.3
003B77A1 2019-03-15 07:39:24 20.6 24 22.2
003B77A1 2019-03-15 07:07:58 20.6 24 23
003B77A1 2019-03-15 06:36:32 20.7 24 23.1
003B77A1 2019-03-15 06:05:06 20.7 24 22.9
003B77A1 2019-03-15 05:33:41 20.7 24 22.9
003B77A1 2019-03-15 05:02:16 20.7 24 22.7
003B77A1 2019-03-15 04:30:53 20.7 24 22.7
003B77A1 2019-03-15 03:59:27 20.7 24 22.7
003B77A1 2019-03-15 03:28:01 20.7 24 22.5
003B77A1 2019-03-15 02:56:36 20.7 24 22.5
003B77A1 2019-03-15 02:25:10 20.7 24 22.5
003B77A1 2019-03-15 01:53:44 20.7 24 22.4
003B77A1 2019-03-15 01:22:19 20.7 24 22.4
003B77A1 2019-03-15 00:50:52 20.7 24 22.5
003B77A1 2019-03-15 00:19:27 20.7 24 22.4
003B77A1 2019-03-14 23:48:02 20.7 24 22.3
003B77A1 2019-03-14 23:16:38 20.8 24 22.2
003B77A1 2019-03-14 22:45:13 20.8 24 22
003B77A1 2019-03-14 22:13:48 20.8 24 21.8
003B77A1 2019-03-14 21:42:23 20.8 24 21.9
003B77A1 2019-03-14 21:10:58 20.8 24 21.9
003B77A1 2019-03-14 20:39:32 20.8 24 21.9
003B77A1 2019-03-14 20:08:06 20.8 24 21.9
003B77A1 2019-03-14 19:36:42 20.9 24 22.1
003B77A1 2019-03-14 19:05:17 20.9 24 22
003B77A1 2019-03-14 18:33:50 20.9 24 22.1
003B77A1 2019-03-14 18:02:25 21 24 21
003B77A1 2019-03-14 17:31:01 21 24 20.9
003B77A1 2019-03-14 16:59:36 21 24 21
003B77A1 2019-03-14 16:28:11 21 24 21
003B77A1 2019-03-14 15:56:46 21 24 21.4
003B77A1 2019-03-14 15:25:21 21 24 21.4
003B77A1 2019-03-14 14:53:55 21 24 21.5
003B77A1 2019-03-14 14:22:31 21 24 21.7
003B77A1 2019-03-14 13:51:06 21 24 21.8
003B77A1 2019-03-14 13:19:40 20.9 24 22.1
003B77A1 2019-03-14 12:48:16 20.9 23 22.4
003B77A1 2019-03-14 12:16:51 20.9 23 23.2
003B77A1 2019-03-14 11:45:27 20.9 23 23.3
003B77A1 2019-03-14 11:14:02 20.9 23 23.4
003B77A1 2019-03-14 10:42:36 20.8 22 23.4
003B77A1 2019-03-14 10:11:11 20.8 21 23.5
003B77A1 2019-03-14 09:39:46 20.7 20 23.6
003B77A1 2019-03-14 09:08:20 20.7 20 23.6
003B77A1 2019-03-14 08:36:56 20.7 20 23.5
003B77A1 2019-03-14 04:56:28 20.6 18 22.8
003B77A1 2019-03-14 04:25:02 20.6 18 22.7
003B77A1 2019-03-14 03:53:38 20.7 18 22.7
003B77A1 2019-03-14 03:22:14 20.6 18 22.4
003B77A1 2019-03-14 02:50:50 20.7 18 23.2
003B77A1 2019-03-14 02:19:24 20.7 17 23.8
003B77A1 2019-03-14 01:48:01 20.6 17 23.8
003B77A1 2019-03-14 01:16:38 20.7 17 23.8
003B77A1 2019-03-14 00:45:14 20.6 17 23.7
003B77A1 2019-03-14 00:13:50 20.6 17 23.5
003B77A1 2019-03-13 23:42:26 20.7 17 22.7
003B77A1 2019-03-13 23:11:02 20.7 17 22.5
003B77A1 2019-03-13 22:39:37 20.7 17 22.4
003B77A1 2019-03-13 22:08:12 20.7 16 22.2
003B77A1 2019-03-13 21:36:47 20.7 16 22.2
003B77A1 2019-03-13 21:05:22 20.7 16 21.9
003B77A1 2019-03-13 20:33:56 20.7 16 21.8
003B77A1 2019-03-13 20:02:30 20.7 16 21.9
003B77A1 2019-03-13 19:31:05 20.8 16 21.8
003B77A1 2019-03-13 18:59:40 20.8 16 21.8
003B77A1 2019-03-13 18:28:16 20.9 16 21.8
003B77A1 2019-03-13 17:56:51 20.9 16 21.8
003B77A1 2019-03-13 17:25:25 21 16 21.8
003B77A1 2019-03-13 16:54:00 21 16 21.9
003B77A1 2019-03-13 16:22:36 21 16 21.9
003B77A1 2019-03-13 15:51:12 21 16 22.9
003B77A1 2019-03-13 15:19:48 20.9 16 23.6
003B77A1 2019-03-13 14:48:23 20.9 16 23.7
003B77A1 2019-03-13 14:16:58 20.9 16 23.7
003B77A1 2019-03-13 13:45:33 20.9 16 22.9
003B77A1 2019-03-13 13:14:09 20.9 16 22.1
003B77A1 2019-03-13 12:42:43 20.9 16 22.1
003B77A1 2019-03-13 12:11:18 20.9 16 21.9
003B77A1 2019-03-13 11:39:54 20.8 16 21.9
003B77A1 2019-03-13 11:08:28 20.8 16 22
003B77A1 2019-03-13 10:37:03 20.7 16 21.9
003B77A1 2019-03-13 10:05:37 20.6 16 21.8
003B77A1 2019-03-13 09:34:13 20.5 15 21.8
003B77A1 2019-03-13 09:02:50 20.4 15 21.9
003B77A1 2019-03-13 08:31:24 20.4 15 21.8
003B77A1 2019-03-13 08:00:00 20.4 15 21.9
003B77A1 2019-03-13 07:28:37 20.4 15 21.9
003B77A1 2019-03-13 06:57:13 20.4 15 21.9
003B77A1 2019-03-13 06:25:51 20.4 15 21.8
003B77A1 2019-03-13 05:54:26 20.4 15 21.9
003B77A1 2019-03-13 05:23:03 20.4 16 21.8
003B77A1 2019-03-13 04:51:39 20.5 16 21.9
003B77A1 2019-03-13 04:20:15 20.5 16 21.9
003B77A1 2019-03-13 03:48:18 20.5 16 21.9
003B77A1 2019-03-13 03:16:55 20.5 16 20.7
003B77A1 2019-03-13 02:45:31 20.5 16 19.1
003B77A1 2019-03-13 02:14:06 20.5 16 20.7
003B77A1 2019-03-13 01:42:42 20.5 16 20.7
003B77A1 2019-03-13 01:11:17 20.5 16 20.6
003B77A1 2019-03-13 00:39:52 20.5 16 20.4
003B77A1 2019-03-13 00:08:27 20.5 16 21.6
003B77A1 2019-03-12 23:37:01 20.6 16 21.7
003B77A1 2019-03-12 23:05:35 20.6 16 21.7
003B77A1 2019-03-12 22:34:09 20.6 16 22.6
003B77A1 2019-03-12 22:02:44 20.6 16 23.4
003B77A1 2019-03-12 21:31:16 20.6 16 23.4
003B77A1 2019-03-12 20:59:50 20.6 16 24.1
003B77A1 2019-03-12 20:28:23 20.7 16 24.7
003B77A1 2019-03-12 19:56:58 20.7 16 25.2
003B77A1 2019-03-12 19:25:32 20.7 16 25.7
003B77A1 2019-03-12 18:54:07 20.7 16 26.1
003B77A1 2019-03-12 18:22:41 20.8 16 26.5
003B77A1 2019-03-12 17:51:14 20.8 16 26.8
003B77A1 2019-03-12 17:19:48 20.8 16 27.2
003B77A1 2019-03-12 16:48:23 20.8 16 27.5
003B77A1 2019-03-12 16:16:57 20.8 16 27.7
003B77A1 2019-03-12 15:45:31 20.8 16 28
003B77A1 2019-03-12 15:14:04 20.8 16 28.2
003B77A1 2019-03-12 14:42:38 20.7 16 28.5
003B77A1 2019-03-12 14:11:12 20.7 16 28.7
003B77A1 2019-03-12 13:39:46 20.7 16 28.9
003B77A1 2019-03-12 13:08:20 20.7 16 28.9
003B77A1 2019-03-12 12:36:54 20.7 16 29.1
003B77A1 2019-03-12 12:05:28 20.7 16 29.3
003B77A1 2019-03-12 11:34:03 20.6 16 29.5
003B77A1 2019-03-12 11:02:38 20.6 16 29.5
003B77A1 2019-03-12 10:31:13 20.5 15 29.7
003B77A1 2019-03-12 09:59:47 20.5 15 29.8
003B77A1 2019-03-12 09:28:22 20.4 15 29.8
003B77A1 2019-03-12 08:56:56 20.4 15 29.8
003B77A1 2019-03-12 08:25:33 20.4 15 30
003B77A1 2019-03-12 07:54:08 20.4 16 30
003B77A1 2019-03-12 07:22:44 20.4 16 30
003B77A1 2019-03-12 06:51:19 20.4 16 30
003B77A1 2019-03-12 06:19:54 20.4 16 30
003B77A1 2019-03-12 05:48:28 20.4 16 30
003B77A1 2019-03-12 05:17:04 20.4 16 30
003B77A1 2019-03-12 04:45:40 20.4 16 30
003B77A1 2019-03-12 04:14:15 20.5 16 29.8
003B77A1 2019-03-12 03:42:49 20.5 16 29.7
003B77A1 2019-03-12 03:11:23 20.5 16 29.5
003B77A1 2019-03-12 02:39:55 20.5 16 29.3
003B77A1 2019-03-12 02:08:28 20.5 16 29.1
003B77A1 2019-03-12 01:36:27 20.5 16 29
003B77A1 2019-03-12 01:05:02 20.5 16 28.8
003B77A1 2019-03-12 00:33:36 20.5 16 28.6
003B77A1 2019-03-12 00:02:10 20.5 16 28.3
003B77A1 2019-03-11 23:30:45 20.6 16 28.1
003B77A1 2019-03-11 22:59:21 20.6 16 27.9
003B77A1 2019-03-11 22:27:55 20.6 16 27.6
003B77A1 2019-03-11 21:56:30 20.7 16 27.3
003B77A1 2019-03-11 21:25:06 20.7 16 27
003B77A1 2019-03-11 20:53:41 20.7 16 26.6
003B77A1 2019-03-11 20:22:15 20.7 16 26.3
003B77A1 2019-03-11 19:50:52 20.7 16 25.9
003B77A1 2019-03-11 19:19:27 20.7 16 25.4
003B77A1 2019-03-11 18:48:02 20.8 16 25.4
003B77A1 2019-03-11 18:16:36 20.8 16 24.9
003B77A1 2019-03-11 17:45:12 20.8 16 24.3
003B77A1 2019-03-11 17:13:47 20.8 16 23.8
003B77A1 2019-03-11 16:42:24 20.8 16 23.1
003B77A1 2019-03-11 16:10:58 20.7 16 22.2
003B77A1 2019-03-11 15:39:34 20.8 16 22.3
003B77A1 2019-03-11 15:08:09 20.7 16 22.4
003B77A1 2019-03-11 14:36:45 20.7 16 22.4
003B77A1 2019-03-11 14:05:21 20.7 16 22.3
003B77A1 2019-03-11 13:33:56 20.6 17 22.4
003B77A1 2019-03-11 13:02:33 20.6 17 21.5
003B77A1 2019-03-11 12:31:09 20.6 17 22.2
003B77A1 2019-03-11 11:59:44 20.6 17 22.1
003B77A1 2019-03-11 11:28:21 20.6 17 22
003B77A1 2019-03-11 10:56:57 20.5 17 22.2
003B77A1 2019-03-11 10:25:32 20.5 17 22.1
003B77A1 2019-03-11 09:54:07 20.4 17 22
003B77A1 2019-03-11 09:22:43 20.4 18 22.1
003B77A1 2019-03-11 08:51:19 20.4 18 22.1
003B77A1 2019-03-11 08:19:54 20.4 18 22.1
003B77A1 2019-03-11 07:48:29 20.4 18 22
003B77A1 2019-03-11 07:17:05 20.4 18 22
003B77A1 2019-03-11 06:45:40 20.4 18 22
003B77A1 2019-03-11 06:14:16 20.4 18 22.1
003B77A1 2019-03-11 05:42:51 20.4 18 21.1
003B77A1 2019-03-11 05:11:24 20.4 18 21.2
003B77A1 2019-03-11 04:39:59 20.4 19 21.2
003B77A1 2019-03-11 04:08:33 20.5 19 21.1
003B77A1 2019-03-11 03:37:08 20.5 19 21.3
003B77A1 2019-03-11 03:05:42 20.5 19 21.3
003B77A1 2019-03-11 02:34:15 20.5 19 21.3
003B77A1 2019-03-11 02:02:50 20.5 19 21.1
003B77A1 2019-03-11 01:31:25 20.5 19 21.1
003B77A1 2019-03-11 00:59:58 20.5 19 21.2
003B77A1 2019-03-11 00:28:30 20.5 19 21.1
003B77A1 2019-03-10 23:57:04 20.5 19 21
003B77A1 2019-03-10 23:24:57 20.5 19 19.3
003B77A1 2019-03-10 22:53:29 20.5 20 19.3
003B77A1 2019-03-10 22:22:02 20.6 20 19.3
003B77A1 2019-03-10 21:50:34 20.6 20 19.1
003B77A1 2019-03-10 21:19:07 20.6 20 19.3
003B77A1 2019-03-10 20:47:41 20.6 20 19.3
003B77A1 2019-03-10 20:16:15 20.6 20 19.2
003B77A1 2019-03-10 19:44:48 20.7 20 19.2
003B77A1 2019-03-10 19:13:22 20.7 20 19.1
003B77A1 2019-03-10 18:41:54 20.7 20 19.1
003B77A1 2019-03-10 18:10:27 20.7 21 19.1
003B77A1 2019-03-10 17:39:01 20.7 21 19.1
003B77A1 2019-03-10 17:07:35 20.7 21 18.8
003B77A1 2019-03-10 16:36:07 20.7 21 18.6
003B77A1 2019-03-10 16:04:41 20.7 22 18.4
003B77A1 2019-03-10 15:33:15 20.7 22 18.3
003B77A1 2019-03-10 15:01:49 20.6 23 18.2
003B77A1 2019-03-10 14:30:23 20.6 23 17.8
003B77A1 2019-03-10 13:58:56 20.6 23 17.8
003B77A1 2019-03-10 13:27:28 20.6 24 17.8
003B77A1 2019-03-10 12:56:01 20.6 24 17.8
003B77A1 2019-03-10 12:24:34 20.6 24 17.8
003B77A1 2019-03-10 11:53:07 20.5 24 17.5
003B77A1 2019-03-10 11:21:40 20.6 24 17.3
003B77A1 2019-03-10 10:50:13 20.5 24 17.1
003B77A1 2019-03-10 10:18:45 20.5 24 17.3
003B77A1 2019-03-10 09:47:19 20.6 24 17.4
003B77A1 2019-03-10 09:15:52 20.6 24 17.3
003B77A1 2019-03-10 08:44:25 20.5 24 17.1
003B77A1 2019-03-10 08:12:59 20.6 24 16.8
003B77A1 2019-03-10 07:41:31 20.6 24 16.9
003B77A1 2019-03-10 07:10:04 20.6 24 16.9
003B77A1 2019-03-10 06:38:36 20.6 24 16.9
003B77A1 2019-03-10 06:07:09 20.6 24 17.2
003B77A1 2019-03-10 05:35:42 20.6 24 17.5
003B77A1 2019-03-10 05:04:16 20.6 24 17.7
003B77A1 2019-03-10 04:32:50 20.6 24 17.6
003B77A1 2019-03-10 04:01:23 20.6 24 17.9
003B77A1 2019-03-10 03:29:57 20.6 24 17.8
003B77A1 2019-03-10 02:58:34 20.6 24 17.8
003B77A1 2019-03-10 02:27:09 20.6 24 18.3
003B77A1 2019-03-10 01:55:41 20.6 24 18.6
003B77A1 2019-03-10 01:24:15 20.6 24 18.7
003B77A1 2019-03-10 00:52:50 20.6 24 18.9
003B77A1 2019-03-10 00:21:28 20.6 24 19
003B77A1 2019-03-09 23:50:02 20.6 23 19.3
003B77A1 2019-03-09 23:18:38 20.6 23 19.4
003B77A1 2019-03-09 22:47:13 20.7 23 19.7
003B77A1 2019-03-09 22:15:47 20.7 23 19.9
003B77A1 2019-03-09 21:44:22 20.7 23 20.3
003B77A1 2019-03-09 21:12:22 20.7 23 20.5
003B77A1 2019-03-09 20:40:54 20.7 23 20.6
003B77A1 2019-03-09 20:09:27 20.7 23 20.9
003B77A1 2019-03-09 19:38:00 20.7 23 21.2
003B77A1 2019-03-09 19:06:34 20.7 23 21.2
003B77A1 2019-03-09 18:35:07 20.7 23 21.3
003B77A1 2019-03-09 18:03:41 20.8 23 21.4
003B77A1 2019-03-09 17:32:14 20.8 23 21.3
003B77A1 2019-03-09 17:00:48 20.8 23 21.4
003B77A1 2019-03-09 16:29:23 20.8 23 21.3
003B77A1 2019-03-09 15:57:57 20.8 23 21.3
003B77A1 2019-03-09 15:26:33 20.8 23 21.4
003B77A1 2019-03-09 14:55:06 20.7 23 21.4
003B77A1 2019-03-09 14:23:39 20.8 24 21.4
003B77A1 2019-03-09 13:52:12 20.7 24 21.2
003B77A1 2019-03-09 13:20:45 20.7 24 21
003B77A1 2019-03-09 12:49:19 20.7 24 21.1
003B77A1 2019-03-09 12:17:53 20.7 24 20.9
003B77A1 2019-03-09 11:46:27 20.7 24 22
003B77A1 2019-03-09 11:15:01 20.6 24 21.8
003B77A1 2019-03-09 10:43:35 20.6 24 21.7
003B77A1 2019-03-09 10:12:09 20.6 24 21.6
003B77A1 2019-03-09 09:40:43 20.6 24 21.5
003B77A1 2019-03-09 09:09:16 20.6 25 21.4
003B77A1 2019-03-09 08:37:50 20.6 25 21.2
003B77A1 2019-03-09 08:06:26 20.6 25 21.1
003B77A1 2019-03-09 07:35:01 20.6 25 21.1
003B77A1 2019-03-09 07:03:35 20.6 25 21.1
003B77A1 2019-03-09 06:32:09 20.7 26 21
003B77A1 2019-03-09 06:00:43 20.7 26 21
003B77A1 2019-03-09 05:29:16 20.7 26 21
003B77A1 2019-03-09 04:57:51 20.7 26 20.8
003B77A1 2019-03-09 04:26:24 20.7 26 20.8
003B77A1 2019-03-09 03:54:58 20.7 26 21.9
003B77A1 2019-03-09 03:23:32 20.7 26 21.9
003B77A1 2019-03-09 02:52:06 20.8 26 21.9
003B77A1 2019-03-09 02:20:39 20.8 26 21.9
003B77A1 2019-03-09 01:49:13 20.8 26 21.9
003B77A1 2019-03-09 01:17:47 20.8 26 21.9
003B77A1 2019-03-09 00:46:21 20.8 27 22
003B77A1 2019-03-09 00:14:55 20.8 26 22
003B77A1 2019-03-08 23:43:28 20.8 26 21.8
003B77A1 2019-03-08 23:12:02 20.9 27 21.8
003B77A1 2019-03-08 22:40:36 20.9 27 20.7
003B77A1 2019-03-08 22:09:10 20.9 27 20.7
003B77A1 2019-03-08 21:37:44 20.9 27 21
003B77A1 2019-03-08 21:06:17 21 27 21.1
003B77A1 2019-03-08 20:34:52 21 27 21.1
003B77A1 2019-03-08 20:03:26 21 27 21
003B77A1 2019-03-08 19:32:01 21.1 27 21.1
003B77A1 2019-03-08 19:00:03 21.1 27 21.2
003B77A1 2019-03-08 18:28:37 21.1 27 21.1
003B77A1 2019-03-08 17:57:11 21.1 27 21.3
003B77A1 2019-03-08 17:25:44 21.2 27 21.2
003B77A1 2019-03-08 16:54:16 21.2 27 21.2
003B77A1 2019-03-08 16:22:50 21.2 27 21.4
003B77A1 2019-03-08 15:51:23 21.1 27 21.6
003B77A1 2019-03-08 15:19:56 21.1 27 20.2
003B77A1 2019-03-08 14:48:29 21.1 27 20.3
003B77A1 2019-03-08 14:17:02 21 27 20.3
003B77A1 2019-03-08 13:45:36 21 26 20.2
003B77A1 2019-03-08 13:14:09 21 26 20.3
003B77A1 2019-03-08 12:42:42 20.9 26 20.4
003B77A1 2019-03-08 12:11:17 20.9 26 20.6
003B77A1 2019-03-08 11:39:51 20.9 25 20.7
003B77A1 2019-03-08 11:08:26 20.8 25 20.7
003B77A1 2019-03-08 10:37:00 20.8 25 20.8
003B77A1 2019-03-08 10:05:35 20.8 25 20.7
003B77A1 2019-03-08 09:34:07 20.8 24 21
003B77A1 2019-03-08 09:02:41 20.8 24 20.9
003B77A1 2019-03-08 08:31:16 20.8 24 20.8
003B77A1 2019-03-08 07:59:50 20.8 24 20.8
003B77A1 2019-03-08 07:28:24 20.8 23 20.7
003B77A1 2019-03-08 06:56:58 20.7 23 20.8
003B77A1 2019-03-08 06:25:32 20.8 23 20.8
003B77A1 2019-03-08 05:54:04 20.7 23 20.6
003B77A1 2019-03-08 05:22:39 20.7 23 20.4
003B77A1 2019-03-08 04:51:13 20.8 23 20.2
003B77A1 2019-03-08 04:19:46 20.7 23 20.1
003B77A1 2019-03-08 03:48:21 20.7 23 20.2
003B77A1 2019-03-08 03:16:56 20.8 23 20
003B77A1 2019-03-08 02:45:31 20.7 23 19.7
003B77A1 2019-03-08 02:14:05 20.8 23 19.9
003B77A1 2019-03-08 01:42:39 20.8 22 19.8
003B77A1 2019-03-08 01:11:11 20.8 22 21.3
003B77A1 2019-03-08 00:39:45 20.8 22 22.3
003B77A1 2019-03-08 00:08:18 20.8 22 22.2
003B77A1 2019-03-07 23:36:51 20.8 22 22.1
003B77A1 2019-03-07 23:05:24 20.8 22 21.9
003B77A1 2019-03-07 22:33:58 20.8 22 21.8
003B77A1 2019-03-07 22:02:32 20.9 22 21.9
003B77A1 2019-03-07 21:31:07 20.9 22 22
003B77A1 2019-03-07 20:59:39 20.9 22 22.3
003B77A1 2019-03-07 20:28:14 20.9 22 22.1
003B77A1 2019-03-07 19:56:46 21 22 22
003B77A1 2019-03-07 19:25:21 21 22 22.1
003B77A1 2019-03-07 18:53:55 21 22 22.1
003B77A1 2019-03-07 18:22:29 21.1 22 22.3
003B77A1 2019-03-07 17:51:03 21.2 22 22.3
003B77A1 2019-03-07 17:19:37 21.2 23 22.5
003B77A1 2019-03-07 16:47:39 21.2 23 22.7
003B77A1 2019-03-07 16:16:14 21.2 22 22.7
003B77A1 2019-03-07 15:44:48 21.2 22 22.7
003B77A1 2019-03-07 15:13:22 21.2 22 22.7
003B77A1 2019-03-07 14:41:56 21.2 22 22.7
003B77A1 2019-03-07 14:10:31 21.1 21 22.7
003B77A1 2019-03-07 13:39:06 21.1 21 22.7
003B77A1 2019-03-07 13:07:41 21 21 22.9
003B77A1 2019-03-07 12:36:15 21 20 22
003B77A1 2019-03-07 12:04:52 21 20 21
003B77A1 2019-03-07 11:33:24 21 19 21.1
003B77A1 2019-03-07 11:01:59 20.9 19 21.2
003B77A1 2019-03-07 10:30:33 20.8 18 21.3
003B77A1 2019-03-07 09:59:06 20.7 18 21.5
003B77A1 2019-03-07 09:27:40 20.7 17 21.5
003B77A1 2019-03-07 08:56:13 20.7 17 21.2
003B77A1 2019-03-07 08:24:48 20.7 17 21
003B77A1 2019-03-07 07:53:22 20.7 16 20.9
003B77A1 2019-03-07 07:21:56 20.7 16 21.3
003B77A1 2019-03-07 06:50:30 20.7 15 21.3
003B77A1 2019-03-07 06:19:03 20.7 15 21.5
003B77A1 2019-03-07 05:47:37 20.7 15 21.4
003B77A1 2019-03-07 05:16:11 20.7 15 21.2
003B77A1 2019-03-07 04:44:45 20.7 15 21
003B77A1 2019-03-07 04:13:19 20.7 14 20.9
003B77A1 2019-03-07 03:41:53 20.7 14 20.8
003B77A1 2019-03-07 03:10:26 20.7 14 20.6
003B77A1 2019-03-07 02:38:59 20.7 14 20.7
003B77A1 2019-03-07 02:07:33 20.7 13 21
003B77A1 2019-03-07 01:36:06 20.7 13 20.9
003B77A1 2019-03-07 01:04:40 20.7 13 20.9
003B77A1 2019-03-07 00:33:14 20.7 13 20.8
003B77A1 2019-03-07 00:01:49 20.7 13 20.7
003B77A1 2019-03-06 23:30:24 20.7 13 20.8
003B77A1 2019-03-06 22:59:01 20.7 12 20.6
003B77A1 2019-03-06 22:27:36 20.8 12 20.5
003B77A1 2019-03-06 21:56:09 20.8 12 20.4
003B77A1 2019-03-06 21:24:45 20.8 12 20.4
003B77A1 2019-03-06 20:53:18 20.8 12 20.1
003B77A1 2019-03-06 20:21:53 20.8 12 20.1
003B77A1 2019-03-06 19:50:27 20.8 12 20.1
003B77A1 2019-03-06 19:19:00 20.8 11 21.4
003B77A1 2019-03-06 18:47:33 20.8 11 21.5
003B77A1 2019-03-06 18:16:07 20.9 11 21.2
003B77A1 2019-03-06 17:44:41 20.9 11 21.4
003B77A1 2019-03-06 17:13:15 21 11 21.4
003B77A1 2019-03-06 16:41:51 21 11 21.7
003B77A1 2019-03-06 16:10:24 21 11 21.6
003B77A1 2019-03-06 15:38:58 21 11 21.7
003B77A1 2019-03-06 15:07:33 21 11 21.6
003B77A1 2019-03-06 14:35:35 20.9 11 22
003B77A1 2019-03-06 14:04:09 20.8 10 22.2
003B77A1 2019-03-06 13:32:43 20.7 10 22
003B77A1 2019-03-06 13:01:16 20.7 10 22.2
003B77A1 2019-03-06 12:29:51 20.7 11 22.3
003B77A1 2019-03-06 11:58:27 20.6 11 22.4
003B77A1 2019-03-06 11:27:00 20.7 11 23.2
003B77A1 2019-03-06 10:55:34 20.6 11 23.3
003B77A1 2019-03-06 10:24:08 20.6 11 23.4
003B77A1 2019-03-06 09:52:44 20.4 11 23.5
003B77A1 2019-03-06 09:21:20 20.4 11 23.5
003B77A1 2019-03-06 08:49:52 20.4 11 23.5
003B77A1 2019-03-06 08:18:24 20.4 11 23.5
003B77A1 2019-03-06 07:46:57 20.5 12 23.6
003B77A1 2019-03-06 07:15:30 20.5 12 23.7
003B77A1 2019-03-06 06:44:02 20.5 12 23.2
003B77A1 2019-03-06 06:12:35 20.5 12 23.2
003B77A1 2019-03-06 05:41:09 20.5 12 23.3
003B77A1 2019-03-06 05:09:44 20.5 12 23.1
003B77A1 2019-03-06 04:38:15 20.6 12 23
003B77A1 2019-03-06 04:06:49 20.6 12 22.7
003B77A1 2019-03-06 03:35:23 20.6 12 22.9
003B77A1 2019-03-06 03:03:58 20.6 12 22.9
003B77A1 2019-03-06 02:32:33 20.6 12 22.9
003B77A1 2019-03-06 02:01:07 20.6 12 22.7
003B77A1 2019-03-06 01:29:42 20.7 12 22.6
003B77A1 2019-03-06 00:58:17 20.7 12 22.4
003B77A1 2019-03-06 00:26:52 20.7 12 22.4
003B77A1 2019-03-05 23:55:26 20.7 13 22.2
003B77A1 2019-03-05 23:24:01 20.8 13 22.2
003B77A1 2019-03-05 22:52:35 20.8 13 22
003B77A1 2019-03-05 22:21:09 20.8 13 20.8
003B77A1 2019-03-05 21:49:45 20.9 13 20.5
003B77A1 2019-03-05 21:18:19 20.9 13 20.6
003B77A1 2019-03-05 20:46:54 20.9 13 20.3
003B77A1 2019-03-05 20:15:28 20.9 12 20.4
003B77A1 2019-03-05 19:44:03 20.9 12 20.5
003B77A1 2019-03-05 19:12:39 20.9 12 20.4
003B77A1 2019-03-05 18:41:14 20.9 12 20.2
003B77A1 2019-03-05 18:09:51 21 13 20.2
003B77A1 2019-03-05 17:38:27 21 13 19.9
003B77A1 2019-03-05 17:07:03 21 13 19.9
003B77A1 2019-03-05 16:35:39 21 14 19.6
003B77A1 2019-03-05 16:04:14 21 14 19.8
003B77A1 2019-03-05 15:32:48 20.9 15 20.1
003B77A1 2019-03-05 15:01:23 20.7 16 20.2
003B77A1 2019-03-05 14:29:57 20.7 16 20.2
003B77A1 2019-03-05 13:58:31 20.6 16 20.4
003B77A1 2019-03-05 13:27:05 20.6 16 20.6
003B77A1 2019-03-05 12:55:39 20.6 16 20.8
003B77A1 2019-03-05 12:23:40 20.6 17 21
003B77A1 2019-03-05 11:52:14 20.6 17 21.1
003B77A1 2019-03-05 11:20:47 20.6 17 21.1
003B77A1 2019-03-05 10:49:21 20.5 17 21.2
003B77A1 2019-03-05 10:17:54 20.5 17 21.4
003B77A1 2019-03-05 09:46:29 20.5 18 21.5
003B77A1 2019-03-05 09:15:03 20.5 18 21.6
003B77A1 2019-03-05 08:43:37 20.5 18 21.6
003B77A1 2019-03-05 08:12:11 20.5 18 21.9
003B77A1 2019-03-05 07:40:44 20.5 19 22.1
003B77A1 2019-03-05 07:09:18 20.5 19 22
003B77A1 2019-03-05 06:37:51 20.5 19 22
003B77A1 2019-03-05 06:06:23 20.6 19 22
003B77A1 2019-03-05 05:34:59 20.5 19 22
003B77A1 2019-03-05 05:03:30 20.6 19 21.9
003B77A1 2019-03-05 04:32:02 20.6 19 21.8
003B77A1 2019-03-05 04:00:35 20.6 19 22.8
003B77A1 2019-03-05 03:29:08 20.6 19 22.7
003B77A1 2019-03-05 02:57:42 20.5 19 22.5
003B77A1 2019-03-05 02:26:16 20.6 19 23.4
003B77A1 2019-03-05 01:54:50 20.6 19 23.3
003B77A1 2019-03-05 01:23:23 20.6 19 23.1
003B77A1 2019-03-05 00:51:57 20.6 19 23
003B77A1 2019-03-05 00:20:32 20.6 19 23
003B77A1 2019-03-04 23:49:07 20.6 19 23
003B77A1 2019-03-04 23:17:42 20.6 18 22.8
003B77A1 2019-03-04 22:46:17 20.6 18 22.7
003B77A1 2019-03-04 22:14:52 20.5 18 22.8
003B77A1 2019-03-04 21:43:27 20.6 18 22.6
003B77A1 2019-03-04 21:12:03 20.6 18 22.4
003B77A1 2019-03-04 20:40:39 20.6 18 22.5
003B77A1 2019-03-04 20:09:15 20.6 18 22.5
003B77A1 2019-03-04 19:37:50 20.6 18 22.7
003B77A1 2019-03-04 19:06:24 20.6 18 22.5
003B77A1 2019-03-04 18:34:57 20.6 18 22.3
003B77A1 2019-03-04 18:03:31 20.6 18 22.3
003B77A1 2019-03-04 17:32:06 20.6 18 22.3
003B77A1 2019-03-04 17:00:41 20.6 18 22.3
003B77A1 2019-03-04 16:29:16 20.6 18 22.3
003B77A1 2019-03-04 15:57:50 20.5 17 22.5
003B77A1 2019-03-04 15:26:25 20.5 17 22.6
003B77A1 2019-03-04 14:55:00 20.5 17 21.6
003B77A1 2019-03-04 14:23:36 20.5 17 21.7
003B77A1 2019-03-04 13:52:12 20.4 17 21.8
003B77A1 2019-03-04 13:20:48 20.4 17 20.7
003B77A1 2019-03-04 12:49:22 20.4 17 20.8
003B77A1 2019-03-04 12:17:57 20.3 17 21.1
003B77A1 2019-03-04 11:46:32 20.3 17 21.1
003B77A1 2019-03-04 11:15:06 20.2 16 21.1
003B77A1 2019-03-04 10:43:43 20.2 16 22.1
003B77A1 2019-03-04 10:11:34 20.2 17 22.3
003B77A1 2019-03-04 09:40:09 20.1 17 22.6
003B77A1 2019-03-04 09:08:44 20.1 17 22.8
003B77A1 2019-03-04 08:37:19 20.1 17 22.8
003B77A1 2019-03-04 08:05:55 20.1 17 23.1
003B77A1 2019-03-04 07:34:31 20.1 18 23.1
003B77A1 2019-03-04 07:03:03 20.1 18 23.1
003B77A1 2019-03-04 06:31:37 20.1 18 23.1
003B77A1 2019-03-04 06:00:12 20.1 18 23.1
003B77A1 2019-03-04 05:28:46 20.1 17 23.2
003B77A1 2019-03-04 04:57:20 20.1 17 23.3
003B77A1 2019-03-04 04:25:53 20.1 17 23.3
003B77A1 2019-03-04 03:54:26 20.1 17 23.7
003B77A1 2019-03-04 03:22:59 20.1 17 23.7
003B77A1 2019-03-04 02:51:33 20.1 17 23.7
003B77A1 2019-03-04 02:20:07 20.1 17 23.9
003B77A1 2019-03-04 01:48:41 20.1 17 24
003B77A1 2019-03-04 01:17:14 20.1 17 24.2
003B77A1 2019-03-04 00:45:47 20.1 17 24.1
003B77A1 2019-03-04 00:14:21 20.1 17 24.2
003B77A1 2019-03-03 23:42:55 20.1 17 24.2
003B77A1 2019-03-03 23:11:30 20.1 17 24.7
003B77A1 2019-03-03 22:40:03 20.1 17 24.6
003B77A1 2019-03-03 22:08:38 20.2 17 24.7
003B77A1 2019-03-03 21:37:13 20.1 17 24.3
003B77A1 2019-03-03 21:05:47 20.1 17 24.2
003B77A1 2019-03-03 20:34:21 20.1 17 24
003B77A1 2019-03-03 20:02:56 20.2 18 23.9
003B77A1 2019-03-03 19:31:31 20.2 18 23.9
003B77A1 2019-03-03 19:00:06 20.2 18 23.9
003B77A1 2019-03-03 18:28:42 20.2 18 23.8
003B77A1 2019-03-03 17:57:17 20.2 18 23.8
003B77A1 2019-03-03 17:25:51 20.2 18 23.7
003B77A1 2019-03-03 16:54:26 20.3 18 24.3
003B77A1 2019-03-03 16:22:59 20.3 18 24.2
003B77A1 2019-03-03 15:51:34 20.3 18 24.3
003B77A1 2019-03-03 15:20:08 20.2 18 24.2
003B77A1 2019-03-03 14:48:41 20.3 18 23.9
003B77A1 2019-03-03 14:17:14 20.2 18 24.4
003B77A1 2019-03-03 13:45:48 20.2 18 24.3
003B77A1 2019-03-03 13:14:21 20.2 18 24.1
003B77A1 2019-03-03 12:42:55 20.2 18 24
003B77A1 2019-03-03 12:11:29 20.2 18 23.8
003B77A1 2019-03-03 11:40:02 20.2 18 23.9
003B77A1 2019-03-03 11:08:38 20.2 18 23.9
003B77A1 2019-03-03 10:37:10 20.2 18 23.8
003B77A1 2019-03-03 10:05:43 20.2 18 23.1
003B77A1 2019-03-03 09:34:18 20.3 18 23.3
003B77A1 2019-03-03 09:02:51 20.3 18 23.2
003B77A1 2019-03-03 08:31:24 20.2 18 23.3
003B77A1 2019-03-03 07:59:24 20.3 18 23.4
003B77A1 2019-03-03 07:27:57 20.3 18 23.5
003B77A1 2019-03-03 06:56:31 20.3 18 23.5
003B77A1 2019-03-03 06:25:04 20.3 18 23.3
003B77A1 2019-03-03 05:53:38 20.3 18 23.4
003B77A1 2019-03-03 05:22:12 20.3 18 23.4
003B77A1 2019-03-03 04:50:47 20.3 18 23.4
003B77A1 2019-03-03 04:19:20 20.3 18 22.5
003B77A1 2019-03-03 03:47:53 20.4 18 22.5
003B77A1 2019-03-03 03:16:27 20.4 18 22.5
003B77A1 2019-03-03 02:44:59 20.4 18 22.5
003B77A1 2019-03-03 02:13:33 20.4 18 22.5
003B77A1 2019-03-03 01:42:06 20.4 18 21.6
003B77A1 2019-03-03 01:10:40 20.4 18 22.6
003B77A1 2019-03-03 00:39:14 20.4 18 22.6
003B77A1 2019-03-03 00:07:48 20.4 18 22.7
003B77A1 2019-03-02 23:36:22 20.4 18 22.7
003B77A1 2019-03-02 23:04:56 20.4 18 22.6
003B77A1 2019-03-02 22:33:31 20.4 18 22.5
003B77A1 2019-03-02 22:02:06 20.4 18 22.5
003B77A1 2019-03-02 21:30:41 20.4 18 22.5
003B77A1 2019-03-02 20:59:16 20.5 18 22.5
003B77A1 2019-03-02 20:27:51 20.5 17 22.4
003B77A1 2019-03-02 19:56:26 20.5 17 22.2
003B77A1 2019-03-02 19:25:00 20.5 17 22.2
003B77A1 2019-03-02 18:53:35 20.5 17 22.2
003B77A1 2019-03-02 18:22:11 20.5 17 22.2
003B77A1 2019-03-02 17:50:46 20.6 17 22.4
003B77A1 2019-03-02 17:19:21 20.6 17 22.6
003B77A1 2019-03-02 16:47:55 20.6 17 22.7
003B77A1 2019-03-02 16:16:30 20.6 17 22.6
003B77A1 2019-03-02 15:45:04 20.5 17 22.7
003B77A1 2019-03-02 15:13:38 20.5 17 22.9
003B77A1 2019-03-02 14:42:11 20.5 17 22.9
003B77A1 2019-03-02 14:10:45 20.4 17 22.9
003B77A1 2019-03-02 13:39:18 20.4 16 23.1
003B77A1 2019-03-02 13:07:51 20.4 16 23.2
003B77A1 2019-03-02 12:36:24 20.5 16 23.2
003B77A1 2019-03-02 12:04:58 20.4 16 22.6
003B77A1 2019-03-02 11:33:31 20.4 16 22.7
003B77A1 2019-03-02 11:02:04 20.4 16 22.6
003B77A1 2019-03-02 10:30:37 20.4 16 22.6
003B77A1 2019-03-02 09:59:08 20.4 16 22.7
003B77A1 2019-03-02 09:27:40 20.4 16 22.7
003B77A1 2019-03-02 08:56:12 20.4 15 23.4
003B77A1 2019-03-02 08:24:44 20.4 15 23.5
003B77A1 2019-03-02 07:53:16 20.4 15 23.6
003B77A1 2019-03-02 07:21:50 20.4 15 23.7
003B77A1 2019-03-02 06:50:24 20.5 15 23.9
003B77A1 2019-03-02 06:18:57 20.5 15 24
003B77A1 2019-03-02 05:46:49 20.5 15 23.9
003B77A1 2019-03-02 05:15:25 20.5 15 24
003B77A1 2019-03-02 04:43:58 20.5 15 23.8
003B77A1 2019-03-02 04:12:32 20.5 14 23.8
003B77A1 2019-03-02 03:41:05 20.6 14 23.8
003B77A1 2019-03-02 03:09:37 20.6 14 24.3
003B77A1 2019-03-02 02:38:10 20.6 14 24.3
003B77A1 2019-03-02 02:06:45 20.6 14 24.4
003B77A1 2019-03-02 01:35:17 20.7 14 24.5
003B77A1 2019-03-02 01:03:50 20.7 14 24.6
003B77A1 2019-03-02 00:32:23 20.8 14 24.5
003B77A1 2019-03-02 00:00:56 20.8 13 24.4
003B77A1 2019-03-01 23:29:29 20.8 13 24.5
003B77A1 2019-03-01 22:58:02 20.9 13 24.5
003B77A1 2019-03-01 22:26:37 20.9 13 24.5
003B77A1 2019-03-01 21:55:10 21 13 24.5
003B77A1 2019-03-01 21:23:43 21 12 24.7
003B77A1 2019-03-01 20:52:17 21 12 24.6
003B77A1 2019-03-01 20:20:49 21 12 24.7
003B77A1 2019-03-01 19:49:20 21 12 24.1
003B77A1 2019-03-01 19:17:51 21 12 24
003B77A1 2019-03-01 18:46:22 21 12 23.9
003B77A1 2019-03-01 18:14:53 21.1 12 24
003B77A1 2019-03-01 17:43:26 21.2 12 23.8
003B77A1 2019-03-01 17:11:57 21.3 13 23.8
003B77A1 2019-03-01 16:40:29 21.3 13 23.8
003B77A1 2019-03-01 16:09:00 21.3 13 23.6
003B77A1 2019-03-01 15:37:33 21.2 14 23.5
003B77A1 2019-03-01 15:06:04 21.1 14 23.4
003B77A1 2019-03-01 14:34:36 20.9 14 23.4
003B77A1 2019-03-01 14:03:08 20.9 14 22.7
003B77A1 2019-03-01 13:31:38 20.9 14 22.7
003B77A1 2019-03-01 13:00:11 20.9 14 22.6
003B77A1 2019-03-01 12:28:44 20.9 15 22.4
003B77A1 2019-03-01 11:57:17 20.9 15 22.1
003B77A1 2019-03-01 11:25:48 20.9 16 22.2
003B77A1 2019-03-01 10:54:21 20.9 16 22.1
003B77A1 2019-03-01 10:22:53 20.8 16 21.8
003B77A1 2019-03-01 09:51:26 20.7 16 21.7
003B77A1 2019-03-01 09:19:57 20.6 16 21.5
003B77A1 2019-03-01 08:48:30 20.5 16 21.7
003B77A1 2019-03-01 08:17:01 20.5 17 21.5
003B77A1 2019-03-01 07:45:34 20.6 17 21.7
003B77A1 2019-03-01 07:14:07 20.6 17 21.5
003B77A1 2019-03-01 06:42:40 20.6 17 21.7
003B77A1 2019-03-01 06:11:13 20.6 18 21.8
003B77A1 2019-03-01 05:39:47 20.6 18 21.7
003B77A1 2019-03-01 05:08:20 20.6 18 21.6
003B77A1 2019-03-01 04:36:52 20.7 18 21.6
003B77A1 2019-03-01 04:05:24 20.7 19 21.4
003B77A1 2019-03-01 03:33:24 20.7 19 21.4
003B77A1 2019-03-01 03:01:56 20.7 19 21.6
003B77A1 2019-03-01 02:30:29 20.7 19 21.8
003B77A1 2019-03-01 01:59:06 20.7 20 21.7
003B77A1 2019-03-01 01:27:38 20.7 20 21.6
003B77A1 2019-03-01 00:56:13 20.7 20 21.5
003B77A1 2019-03-01 00:24:49 20.7 21 21.4
003B77A1 2019-02-28 23:53:20 20.8 21 21.4
003B77A1 2019-02-28 23:21:55 20.8 21 21.4
003B77A1 2019-02-28 22:50:29 20.8 22 21.3
003B77A1 2019-02-28 22:19:02 20.8 22 21.5
003B77A1 2019-02-28 21:47:35 20.9 22 21.5
003B77A1 2019-02-28 21:16:09 20.9 22 21.6
003B77A1 2019-02-28 20:44:42 21 23 21.6
003B77A1 2019-02-28 20:13:17 21 23 22.5
003B77A1 2019-02-28 19:41:52 21 23 22.3
003B77A1 2019-02-28 19:10:27 21 23 23
003B77A1 2019-02-28 18:39:01 21.1 23 23.2
003B77A1 2019-02-28 18:07:35 21.2 24 23
003B77A1 2019-02-28 17:36:09 21.3 25 23.7
003B77A1 2019-02-28 17:04:44 21.4 26 23.7
003B77A1 2019-02-28 16:33:17 21.4 27 23.8
003B77A1 2019-02-28 16:01:50 21.4 26 23.8
003B77A1 2019-02-28 15:30:23 21.3 26 23.9
003B77A1 2019-02-28 14:58:57 21.2 25 23.9
003B77A1 2019-02-28 14:27:29 21.3 25 23.9
003B77A1 2019-02-28 13:56:03 21.2 25 24.5
003B77A1 2019-02-28 13:24:36 21.2 25 24.4
003B77A1 2019-02-28 12:53:09 21.2 25 24.5
003B77A1 2019-02-28 12:21:42 21.1 25 24.6
003B77A1 2019-02-28 11:50:16 21.1 25 24.7
003B77A1 2019-02-28 11:18:50 21.1 25 24.8
003B77A1 2019-02-28 10:47:23 21 24 24.9
003B77A1 2019-02-28 10:15:57 20.9 23 24.9
003B77A1 2019-02-28 09:44:30 20.8 23 24.8
003B77A1 2019-02-28 09:13:02 20.8 22 25
003B77A1 2019-02-28 08:41:34 20.8 22 25
003B77A1 2019-02-28 08:10:06 20.8 22 24.9
003B77A1 2019-02-28 07:38:40 20.7 22 25.1
003B77A1 2019-02-28 07:07:13 20.8 22 24.6
003B77A1 2019-02-28 06:35:47 20.8 22 24.7
003B77A1 2019-02-28 06:04:21 20.8 22 24.1
003B77A1 2019-02-28 05:32:55 20.8 22 24.2
003B77A1 2019-02-28 05:01:29 20.8 22 24.1
003B77A1 2019-02-28 04:30:02 20.8 22 23.5
003B77A1 2019-02-28 03:58:37 20.8 22 23.5
003B77A1 2019-02-28 03:27:12 20.8 21 23.4
003B77A1 2019-02-28 02:55:46 20.8 21 23.3
003B77A1 2019-02-28 02:24:20 20.9 21 23.1
003B77A1 2019-02-28 01:52:53 20.8 21 23.2
003B77A1 2019-02-28 01:20:54 20.9 22 22.3
003B77A1 2019-02-28 00:49:28 20.9 22 22.3
003B77A1 2019-02-28 00:18:03 20.9 22 22
003B77A1 2019-02-27 23:46:37 20.9 22 21.7
003B77A1 2019-02-27 23:15:11 21 22 21.6
003B77A1 2019-02-27 22:43:44 21 22 21.4
003B77A1 2019-02-27 22:12:19 21.1 22 21.3
003B77A1 2019-02-27 21:40:53 21.1 22 21.6
003B77A1 2019-02-27 21:09:26 21.1 23 21.6
003B77A1 2019-02-27 20:38:00 21.1 23 21.2
003B77A1 2019-02-27 20:06:33 21.2 23 22.2
003B77A1 2019-02-27 19:35:07 21.2 23 22.4
003B77A1 2019-02-27 19:03:40 21.3 23 22.4
003B77A1 2019-02-27 18:32:13 21.4 23 22.3
003B77A1 2019-02-27 18:00:46 21.5 24 22.4
003B77A1 2019-02-27 17:29:19 21.6 25 22.5
003B77A1 2019-02-27 16:57:51 21.6 26 22.3
003B77A1 2019-02-27 16:26:25 21.6 26 22.6
003B77A1 2019-02-27 15:54:59 21.6 26 22.8
003B77A1 2019-02-27 15:23:32 21.5 26 22.9
003B77A1 2019-02-27 14:52:05 21.4 26 23
003B77A1 2019-02-27 14:20:38 21.3 26 23.1
003B77A1 2019-02-27 13:49:11 21.2 25 23.2
003B77A1 2019-02-27 13:17:44 21.2 25 23.2
003B77A1 2019-02-27 12:46:18 21.2 25 23.3
003B77A1 2019-02-27 12:14:51 21.2 26 23.2
003B77A1 2019-02-27 11:43:26 21.1 25 23.2
003B77A1 2019-02-27 11:12:00 21.1 26 23.3
003B77A1 2019-02-27 10:40:34 21.1 26 23.5
003B77A1 2019-02-27 10:09:09 21 25 23.4
003B77A1 2019-02-27 09:37:45 20.9 24 23.4
003B77A1 2019-02-27 09:06:19 20.9 24 23.4
003B77A1 2019-02-27 08:34:53 20.9 24 23.4
003B77A1 2019-02-27 08:03:27 20.9 23 23.3
003B77A1 2019-02-27 07:32:01 20.9 23 23.3
003B77A1 2019-02-27 07:00:34 20.9 23 22.6
003B77A1 2019-02-27 06:29:08 20.9 23 22.4
003B77A1 2019-02-27 05:57:41 20.9 23 22.1
003B77A1 2019-02-27 05:26:14 21 23 22.1
003B77A1 2019-02-27 04:54:48 21 23 22.1
003B77A1 2019-02-27 04:23:21 21 23 22.1
003B77A1 2019-02-27 03:51:55 21 23 22.2
003B77A1 2019-02-27 03:20:28 21 23 22
003B77A1 2019-02-27 02:49:03 21.1 23 21.6
003B77A1 2019-02-27 02:17:39 21.1 23 21.6
003B77A1 2019-02-27 01:46:15 21.1 23 21.3
003B77A1 2019-02-27 01:14:51 21.1 23 21.2
003B77A1 2019-02-27 00:43:26 21.2 23 21.3
003B77A1 2019-02-27 00:12:01 21.2 23 21.4
003B77A1 2019-02-26 23:40:36 21.3 24 22.3
003B77A1 2019-02-26 23:08:38 21.3 24 23.9
003B77A1 2019-02-26 22:37:12 21.3 24 23.9
003B77A1 2019-02-26 22:05:49 21.4 24 23.9
003B77A1 2019-02-26 21:34:21 21.4 24 24.5
003B77A1 2019-02-26 21:02:55 21.5 24 25
003B77A1 2019-02-26 20:31:29 21.6 24 25.5
003B77A1 2019-02-26 20:00:04 21.6 24 25.9
003B77A1 2019-02-26 19:28:38 21.7 24 26.2
003B77A1 2019-02-26 18:57:11 21.7 24 26.6
003B77A1 2019-02-26 18:25:45 21.8 24 26.9
003B77A1 2019-02-26 17:54:18 21.9 24 27.2
003B77A1 2019-02-26 17:22:52 21.9 24 27.5
003B77A1 2019-02-26 16:51:24 21.9 25 27.8
003B77A1 2019-02-26 16:19:58 21.8 25 28
003B77A1 2019-02-26 15:48:31 21.7 25 28.2
003B77A1 2019-02-26 15:17:03 21.6 25 28.4
003B77A1 2019-02-26 14:45:36 21.5 25 28.6
003B77A1 2019-02-26 14:14:09 21.5 25 28.8
003B77A1 2019-02-26 13:42:43 21.5 25 29
003B77A1 2019-02-26 13:11:19 21.4 25 29.2
003B77A1 2019-02-26 12:39:51 21.4 25 29.4
003B77A1 2019-02-26 12:08:25 21.3 25 29.6
003B77A1 2019-02-26 11:36:59 21.2 25 29.7
003B77A1 2019-02-26 11:05:33 21.2 25 29.7
003B77A1 2019-02-26 10:34:08 21.1 25 29.7
003B77A1 2019-02-26 10:02:40 21 24 29.7
003B77A1 2019-02-26 09:31:13 21 24 29.9
003B77A1 2019-02-26 08:59:47 20.9 23 30
003B77A1 2019-02-26 08:28:21 20.9 23 30
003B77A1 2019-02-26 07:56:55 20.9 23 30
003B77A1 2019-02-26 07:25:29 20.9 23 30
003B77A1 2019-02-26 06:54:04 20.9 23 30
003B77A1 2019-02-26 06:22:37 20.9 23 30
003B77A1 2019-02-26 05:51:13 21 23 30
003B77A1 2019-02-26 05:19:48 21 22 30
003B77A1 2019-02-26 04:48:22 20.9 22 30
003B77A1 2019-02-26 04:16:57 21 22 30
003B77A1 2019-02-26 03:45:31 21 22 29.8
003B77A1 2019-02-26 03:14:06 21 22 29.7
003B77A1 2019-02-26 02:42:40 21 22 29.5
003B77A1 2019-02-26 02:11:14 21 22 29.3
003B77A1 2019-02-26 01:39:47 21.1 22 29.1
003B77A1 2019-02-26 01:08:21 21.1 21 28.9
003B77A1 2019-02-26 00:36:55 21.1 21 28.7
003B77A1 2019-02-26 00:05:28 21.1 21 28.5
003B77A1 2019-02-25 23:34:01 21.2 21 28.3
003B77A1 2019-02-25 23:02:34 21.2 21 28
003B77A1 2019-02-25 22:31:07 21.2 21 27.8
003B77A1 2019-02-25 21:59:41 21.3 21 27.5
003B77A1 2019-02-25 21:28:15 21.4 21 27.2
003B77A1 2019-02-25 20:56:17 21.4 21 26.6
003B77A1 2019-02-25 20:24:51 21.5 21 26.2
003B77A1 2019-02-25 19:53:25 21.5 21 25.8
003B77A1 2019-02-25 19:22:00 21.5 21 25.4
003B77A1 2019-02-25 18:50:34 21.6 21 24.9
003B77A1 2019-02-25 18:19:07 21.6 21 24.5
003B77A1 2019-02-25 17:47:41 21.6 21 24
003B77A1 2019-02-25 17:16:14 21.6 22 23.3
003B77A1 2019-02-25 16:44:47 21.6 22 22.4
003B77A1 2019-02-25 16:13:22 21.6 22 21.3
003B77A1 2019-02-25 15:41:58 21.6 23 21.3
003B77A1 2019-02-25 15:10:34 21.5 23 21.5
003B77A1 2019-02-25 14:39:12 21.4 23 21.6
003B77A1 2019-02-25 14:07:44 21.4 23 21.6
003B77A1 2019-02-25 13:36:18 21.2 22 21.5
003B77A1 2019-02-25 13:04:54 21.2 22 21.6
003B77A1 2019-02-25 12:33:27 21.1 22 21.5
003B77A1 2019-02-25 12:02:03 21 23 21.8
003B77A1 2019-02-25 11:30:40 21 23 22.3
003B77A1 2019-02-25 10:59:10 20.9 23 22.3
003B77A1 2019-02-25 10:27:46 20.8 23 22.4
003B77A1 2019-02-25 09:56:20 20.7 22 22.4
003B77A1 2019-02-25 09:24:55 20.7 22 22.3
003B77A1 2019-02-25 08:53:30 20.6 22 22.5
003B77A1 2019-02-25 08:22:04 20.6 22 22.6
003B77A1 2019-02-25 07:50:38 20.6 22 22.4
003B77A1 2019-02-25 07:19:12 20.6 22 22.4
003B77A1 2019-02-25 06:47:46 20.6 22 22.4
003B77A1 2019-02-25 06:16:20 20.6 22 22.2
003B77A1 2019-02-25 05:44:55 20.7 22 22.2
003B77A1 2019-02-25 05:13:29 20.7 22 22.4
003B77A1 2019-02-25 04:42:03 20.7 22 22.7
003B77A1 2019-02-25 04:10:36 20.7 22 22.8
003B77A1 2019-02-25 03:39:09 20.7 22 21.9
003B77A1 2019-02-25 03:07:43 20.7 22 21.9
003B77A1 2019-02-25 02:36:18 20.7 22 21.9
003B77A1 2019-02-25 02:04:53 20.7 22 21.9
003B77A1 2019-02-25 01:33:27 20.7 23 22.1
003B77A1 2019-02-25 01:02:02 20.7 23 22.1
003B77A1 2019-02-25 00:30:37 20.7 23 22.1
003B77A1 2019-02-24 23:59:12 20.7 24 22
003B77A1 2019-02-24 23:27:46 20.7 24 21.8
003B77A1 2019-02-24 22:56:22 20.7 24 21.7
003B77A1 2019-02-24 22:24:54 20.7 24 21.5
003B77A1 2019-02-24 21:53:27 20.7 24 21.4
003B77A1 2019-02-24 21:22:00 20.8 24 22.4
003B77A1 2019-02-24 20:50:33 20.8 24 22.3
003B77A1 2019-02-24 20:19:09 20.8 24 22.5
003B77A1 2019-02-24 19:47:43 20.8 24 22.2
003B77A1 2019-02-24 19:16:14 20.8 24 22
003B77A1 2019-02-24 18:44:14 20.8 24 22.1
003B77A1 2019-02-24 18:12:46 20.8 24 22.1
003B77A1 2019-02-24 17:41:21 20.8 24 22.1
003B77A1 2019-02-24 17:09:55 20.8 24 22.1
003B77A1 2019-02-24 16:38:29 20.8 24 21.9
003B77A1 2019-02-24 16:07:04 20.8 23 21.5
003B77A1 2019-02-24 15:35:37 20.8 23 21.6
003B77A1 2019-02-24 15:04:12 20.8 23 21.7
003B77A1 2019-02-24 14:32:46 20.8 23 21.6
003B77A1 2019-02-24 14:01:21 20.8 23 21.8
003B77A1 2019-02-24 13:29:54 20.8 23 22
003B77A1 2019-02-24 12:58:28 20.8 23 21.9
003B77A1 2019-02-24 12:27:01 20.8 23 21.7
003B77A1 2019-02-24 11:55:33 20.8 23 21.8
003B77A1 2019-02-24 11:24:07 20.8 22 21.7
003B77A1 2019-02-24 10:52:42 20.8 22 21.9
003B77A1 2019-02-24 10:21:18 20.8 22 22
003B77A1 2019-02-24 09:49:51 20.8 22 21.9
003B77A1 2019-02-24 09:18:26 20.8 22 22
003B77A1 2019-02-24 08:47:01 20.8 22 21
003B77A1 2019-02-24 08:15:34 20.8 22 21.4
003B77A1 2019-02-24 07:44:08 20.8 22 21.5
003B77A1 2019-02-24 07:12:41 20.8 22 21.8
003B77A1 2019-02-24 06:41:16 20.8 22 22
003B77A1 2019-02-24 06:09:50 20.8 22 22
003B77A1 2019-02-24 05:38:24 20.9 22 22
003B77A1 2019-02-24 05:06:58 20.9 22 21.9
003B77A1 2019-02-24 04:35:30 20.9 22 21.9
003B77A1 2019-02-24 04:04:04 20.9 22 22
003B77A1 2019-02-24 03:32:40 20.9 22 22
003B77A1 2019-02-24 03:01:13 20.9 22 22
003B77A1 2019-02-24 02:29:48 20.9 22 22.1
003B77A1 2019-02-24 01:58:23 20.9 22 22.1
003B77A1 2019-02-24 01:26:59 20.9 22 22.1
003B77A1 2019-02-24 00:55:35 21 22 22.1
003B77A1 2019-02-24 00:24:10 21 22 21.8
003B77A1 2019-02-23 23:52:45 21 21 21.9
003B77A1 2019-02-23 23:21:22 21 21 22
003B77A1 2019-02-23 22:49:54 21 21 22.2
003B77A1 2019-02-23 22:18:30 21 21 22.3
003B77A1 2019-02-23 21:47:06 21.1 21 22.3
003B77A1 2019-02-23 21:15:41 21.1 21 23.1
003B77A1 2019-02-23 20:44:16 21.2 21 23.1
003B77A1 2019-02-23 20:12:50 21.2 20 23
003B77A1 2019-02-23 19:41:24 21.2 20 23.1
003B77A1 2019-02-23 19:09:58 21.2 20 23
003B77A1 2019-02-23 18:38:31 21.2 20 23.6
003B77A1 2019-02-23 18:07:06 21.3 19 23.5
003B77A1 2019-02-23 17:35:39 21.3 19 23.5
003B77A1 2019-02-23 17:04:13 21.3 18 23.6
003B77A1 2019-02-23 16:32:14 21.3 18 23.7
003B77A1 2019-02-23 16:00:48 21.2 18 23.8
003B77A1 2019-02-23 15:29:21 21.1 18 23.8
003B77A1 2019-02-23 14:57:56 21 18 23.8
003B77A1 2019-02-23 14:26:29 21 17 23.9
003B77A1 2019-02-23 13:55:02 20.9 17 23.8
003B77A1 2019-02-23 13:23:34 20.9 17 23.7
003B77A1 2019-02-23 12:52:07 20.9 17 23.7
003B77A1 2019-02-23 12:20:41 20.9 17 23.6
003B77A1 2019-02-23 11:49:14 20.9 16 23.6
003B77A1 2019-02-23 11:17:46 20.9 16 23.5
003B77A1 2019-02-23 10:46:19 20.9 16 23.4
003B77A1 2019-02-23 10:14:51 20.9 16 23.2
003B77A1 2019-02-23 09:43:24 20.9 15 23.2
003B77A1 2019-02-23 09:11:57 20.9 15 23.1
003B77A1 2019-02-23 08:40:31 20.9 15 22.4
003B77A1 2019-02-23 08:09:03 20.9 15 22.5
003B77A1 2019-02-23 07:37:35 20.9 14 22.6
003B77A1 2019-02-23 07:06:09 20.9 14 22.4
003B77A1 2019-02-23 06:34:42 20.9 14 22.5
003B77A1 2019-02-23 06:03:15 20.9 14 21.7
003B77A1 2019-02-23 05:31:49 20.8 13 21.8
003B77A1 2019-02-23 05:00:23 20.9 13 21.6
003B77A1 2019-02-23 04:28:56 20.9 13 21.5
003B77A1 2019-02-23 03:57:29 20.9 13 21.4
003B77A1 2019-02-23 03:26:03 20.9 12 21.3
003B77A1 2019-02-23 02:54:33 20.9 12 21.4
003B77A1 2019-02-23 02:23:05 20.9 12 21.3
003B77A1 2019-02-23 01:51:36 20.9 12 21.5
003B77A1 2019-02-23 01:20:10 20.9 11 21.6
003B77A1 2019-02-23 00:48:42 20.9 11 21.7
003B77A1 2019-02-23 00:17:14 21 11 21.8
003B77A1 2019-02-22 23:45:47 21 11 21.8
003B77A1 2019-02-22 23:14:19 21 11 21.9
003B77A1 2019-02-22 22:42:52 21 11 21.9
003B77A1 2019-02-22 22:11:25 21.1 11 22
003B77A1 2019-02-22 21:39:57 21.1 10 22.1
003B77A1 2019-02-22 21:08:30 21.1 10 22.2
003B77A1 2019-02-22 20:37:03 21.1 10 22.1
003B77A1 2019-02-22 20:05:35 21.1 10 22.2
003B77A1 2019-02-22 19:34:08 21.2 10 22.2
003B77A1 2019-02-22 19:02:40 21.2 10 22.3
003B77A1 2019-02-22 18:31:12 21.2 10 22.3
003B77A1 2019-02-22 17:59:44 21.2 10 22.3
003B77A1 2019-02-22 17:28:17 21.2 10 22.3
003B77A1 2019-02-22 16:56:49 21.3 10 23.1
003B77A1 2019-02-22 16:25:22 21.3 11 23.1
003B77A1 2019-02-22 15:53:55 21.2 11 23.3
003B77A1 2019-02-22 15:22:27 21.1 11 23.4
003B77A1 2019-02-22 14:50:58 20.9 11 23.6
003B77A1 2019-02-22 14:18:58 20.9 11 23.6
003B77A1 2019-02-22 13:47:30 20.8 11 23.5
003B77A1 2019-02-22 13:16:04 20.8 11 23.4
003B77A1 2019-02-22 12:44:36 20.8 11 23.2
003B77A1 2019-02-22 12:13:09 20.7 11 23.2
003B77A1 2019-02-22 11:41:42 20.7 11 23.1
003B77A1 2019-02-22 11:10:14 20.6 11 23.2
003B77A1 2019-02-22 10:38:48 20.5 11 23.3
003B77A1 2019-02-22 10:07:20 20.5 11 23.3
003B77A1 2019-02-22 09:35:53 20.5 11 23.3
003B77A1 2019-02-22 09:04:26 20.4 11 23.2
003B77A1 2019-02-22 08:32:59 20.5 12 23.3
003B77A1 2019-02-22 08:01:33 20.5 12 23.4
003B77A1 2019-02-22 07:30:07 20.5 12 23.5
003B77A1 2019-02-22 06:58:41 20.6 12 23.5
003B77A1 2019-02-22 06:27:16 20.5 12 23.5
003B77A1 2019-02-22 05:55:50 20.5 12 23.5
003B77A1 2019-02-22 05:24:23 20.6 12 23.4
003B77A1 2019-02-22 04:52:58 20.6 12 23.2
003B77A1 2019-02-22 04:21:32 20.6 12 22.3
003B77A1 2019-02-22 03:50:05 20.6 12 22.1
003B77A1 2019-02-22 03:18:41 20.6 12 21.7
003B77A1 2019-02-22 02:47:14 20.6 12 22.6
003B77A1 2019-02-22 02:15:48 20.6 12 23.2
003B77A1 2019-02-22 01:44:23 20.6 12 23.9
003B77A1 2019-02-22 01:12:59 20.7 12 24.4
003B77A1 2019-02-22 00:41:31 20.7 12 24.9
003B77A1 2019-02-22 00:10:05 20.7 12 24.9
003B77A1 2019-02-21 23:38:39 20.7 12 24.8
003B77A1 2019-02-21 23:07:13 20.8 12 24.8
003B77A1 2019-02-21 22:35:46 20.8 12 24.8
003B77A1 2019-02-21 22:04:21 20.8 12 24.7
003B77A1 2019-02-21 21:32:56 20.9 12 24.5
003B77A1 2019-02-21 21:01:31 20.9 11 24.5
003B77A1 2019-02-21 20:30:05 20.9 11 24.4
003B77A1 2019-02-21 19:58:38 21 11 24.3
003B77A1 2019-02-21 19:27:11 21 11 24.2
003B77A1 2019-02-21 18:55:45 21.1 11 24.1
003B77A1 2019-02-21 18:24:18 21.1 12 24
003B77A1 2019-02-21 17:52:50 21.2 12 23.8
003B77A1 2019-02-21 17:21:24 21.2 12 23.7
003B77A1 2019-02-21 16:49:59 21.1 12 23.5
003B77A1 2019-02-21 16:18:32 21 12 23.4
003B77A1 2019-02-21 15:47:07 20.8 12 23.4
003B77A1 2019-02-21 15:15:41 20.7 12 23.4
003B77A1 2019-02-21 14:44:14 20.7 12 23.4
003B77A1 2019-02-21 14:12:47 20.7 12 23.4
003B77A1 2019-02-21 13:41:21 20.6 12 22.5
003B77A1 2019-02-21 13:09:55 20.6 13 21.5
003B77A1 2019-02-21 12:38:30 20.6 13 20.1
003B77A1 2019-02-21 12:06:21 20.6 13 18.1
003B77A1 2019-02-21 11:34:53 20.6 13 13.9
003B77A1 2019-02-21 11:03:26 20.6 13 13.9
003B77A1 2019-02-21 10:31:58 20.6 14 14.5
003B77A1 2019-02-21 10:00:27 20.6 14 14.7
003B77A1 2019-02-21 09:28:59 20.6 14 15
003B77A1 2019-02-21 08:57:35 20.6 15 15.2
003B77A1 2019-02-21 08:26:06 20.6 15 15.4
003B77A1 2019-02-21 07:54:39 20.5 15 15.5
003B77A1 2019-02-21 07:23:08 20.6 16 15.6
003B77A1 2019-02-21 06:51:44 20.6 16 15.1
003B77A1 2019-02-21 06:20:16 20.6 16 15
003B77A1 2019-02-21 05:48:50 20.6 16 14.6
003B77A1 2019-02-21 05:17:22 20.6 16 14.8
003B77A1 2019-02-21 04:45:56 20.7 17 14.8
003B77A1 2019-02-21 04:14:33 20.7 17 14.8
003B77A1 2019-02-21 03:43:04 20.7 17 18.5
003B77A1 2019-02-21 03:11:38 20.7 17 20.4
003B77A1 2019-02-21 02:40:12 20.7 17 20.4
003B77A1 2019-02-21 02:08:46 20.7 17 21.7
003B77A1 2019-02-21 01:37:22 20.7 17 21.8
003B77A1 2019-02-21 01:05:55 20.7 17 21.8
003B77A1 2019-02-21 00:34:26 20.7 17 21.8
003B77A1 2019-02-21 00:03:01 20.7 18 22
003B77A1 2019-02-20 23:31:35 20.7 18 22.9
003B77A1 2019-02-20 23:00:06 20.7 18 23
003B77A1 2019-02-20 22:28:38 20.7 18 23
003B77A1 2019-02-20 21:57:16 20.7 18 23
003B77A1 2019-02-20 21:25:48 20.7 18 22.9
003B77A1 2019-02-20 20:54:19 20.7 18 22.9
003B77A1 2019-02-20 20:22:54 20.7 18 22.9
003B77A1 2019-02-20 19:51:29 20.7 18 22.9
003B77A1 2019-02-20 19:20:01 20.7 18 22.9
003B77A1 2019-02-20 18:48:33 20.7 18 22.9
003B77A1 2019-02-20 18:17:05 20.8 18 23
003B77A1 2019-02-20 17:45:37 20.8 19 23
003B77A1 2019-02-20 17:14:10 20.8 19 23
003B77A1 2019-02-20 16:11:14 20.8 21 23.1
003B77A1 2019-02-20 15:08:17 20.8 21 23.1